Wetterdaten: Freitag, 01.11.2013
Datum Zeit Temp. Aussen +5cm Feuchte Auss Luftdruck Regen Sonnenschein Regendauer UV Solar Windben
01.11.2013 00:00 11,1 C 10,0 C 81 % 1018,8 hPa 0,0 l/m 0 min 0 min 0,0 UV-I 0 W/m 12,9 km/h (3 Bft)
01.11.2013 00:02 11,1 C 10,0 C 81 % 1018,8 hPa 0,0 l/m 0 min 0 min 0,0 UV-I 0 W/m 18,0 km/h (3 Bft)
01.11.2013 00:06 11,1 C 10,0 C 81 % 1018,7 hPa 0,0 l/m 0 min 0 min 0,0 UV-I 0 W/m 15,4 km/h (3 Bft)
01.11.2013 00:08 11,1 C 9,4 C 81 % 1018,7 hPa 0,0 l/m 0 min 0 min 0,0 UV-I 0 W/m 12,9 km/h (3 Bft)
01.11.2013 00:10 11,1 C 9,4 C 81 % 1018,7 hPa 0,0 l/m 0 min 0 min 0,0 UV-I 0 W/m 18,0 km/h (3 Bft)
01.11.2013 00:12 11,1 C 9,4 C 81 % 1018,7 hPa 0,0 l/m 0 min 0 min 0,0 UV-I 0 W/m 10,3 km/h (2 Bft)
01.11.2013 00:14 11,1 C 9,4 C 81 % 1018,7 hPa 0,0 l/m 0 min 0 min 0,0 UV-I 0 W/m 0,0 km/h (0 Bft)
01.11.2013 00:16 11,0 C 9,4 C 81 % 1018,7 hPa 0,0 l/m 0 min 0 min 0,0 UV-I 0 W/m 5,1 km/h (1 Bft)
01.11.2013 00:18 11,0 C 9,4 C 81 % 1018,7 hPa 0,0 l/m 0 min 0 min 0,0 UV-I 0 W/m 18,0 km/h (3 Bft)
01.11.2013 00:20 11,0 C 9,4 C 81 % 1018,7 hPa 0,0 l/m 0 min 0 min 0,0 UV-I 0 W/m 18,0 km/h (3 Bft)
01.11.2013 00:22 11,0 C 9,4 C 81 % 1018,7 hPa 0,0 l/m 0 min 0 min 0,0 UV-I 0 W/m 25,7 km/h (4 Bft)
01.11.2013 00:24 11,0 C 9,4 C 81 % 1018,6 hPa 0,0 l/m 0 min 2 min 0,0 UV-I 0 W/m 12,9 km/h (3 Bft)
01.11.2013 00:26 11,0 C 9,4 C 81 % 1018,7 hPa 0,0 l/m 0 min 0 min 0,0 UV-I 0 W/m 12,9 km/h (3 Bft)
01.11.2013 00:28 11,0 C 9,4 C 81 % 1018,6 hPa 0,0 l/m 0 min 0 min 0,0 UV-I 0 W/m 18,0 km/h (3 Bft)
01.11.2013 00:30 11,0 C 9,4 C 81 % 1018,6 hPa 0,0 l/m 0 min 0 min 0,0 UV-I 0 W/m 10,3 km/h (2 Bft)
01.11.2013 00:32 11,0 C 9,4 C 81 % 1018,5 hPa 0,0 l/m 0 min 0 min 0,0 UV-I 0 W/m 18,0 km/h (3 Bft)
01.11.2013 00:34 11,0 C 9,4 C 81 % 1018,6 hPa 0,0 l/m 0 min 0 min 0,0 UV-I 0 W/m 10,3 km/h (2 Bft)
01.11.2013 00:36 11,0 C 9,4 C 81 % 1018,6 hPa 0,0 l/m 0 min 0 min 0,0 UV-I 0 W/m 7,7 km/h (2 Bft)
01.11.2013 00:38 11,0 C 9,4 C 81 % 1018,6 hPa 0,0 l/m 0 min 0 min 0,0 UV-I 0 W/m 18,0 km/h (3 Bft)
01.11.2013 00:40 11,0 C 9,4 C 81 % 1018,5 hPa 0,0 l/m 0 min 2 min 0,0 UV-I 0 W/m 10,3 km/h (2 Bft)
01.11.2013 00:42 10,9 C 9,4 C 81 % 1018,6 hPa 0,0 l/m 0 min 0 min 0,0 UV-I 0 W/m 18,0 km/h (3 Bft)
01.11.2013 00:44 10,9 C 9,4 C 81 % 1018,5 hPa 0,0 l/m 0 min 0 min 0,0 UV-I 0 W/m 2,6 km/h (1 Bft)
01.11.2013 00:46 10,9 C 9,4 C 81 % 1018,6 hPa 0,0 l/m 0 min 2 min 0,0 UV-I 0 W/m 12,9 km/h (3 Bft)
01.11.2013 00:48 10,9 C 9,4 C 81 % 1018,6 hPa 0,0 l/m 0 min 2 min 0,0 UV-I 0 W/m 12,9 km/h (3 Bft)
01.11.2013 00:50 10,9 C 9,4 C 82 % 1018,6 hPa 0,0 l/m 0 min 2 min 0,0 UV-I 0 W/m 10,3 km/h (2 Bft)
01.11.2013 00:52 10,9 C 9,4 C 82 % 1018,6 hPa 0,0 l/m 0 min 2 min 0,0 UV-I 0 W/m 18,0 km/h (3 Bft)
01.11.2013 00:54 10,9 C 9,4 C 82 % 1018,7 hPa 0,0 l/m 0 min 2 min 0,0 UV-I 0 W/m 10,3 km/h (2 Bft)
01.11.2013 00:56 10,9 C 8,9 C 82 % 1018,7 hPa 0,0 l/m 0 min 2 min 0,0 UV-I 0 W/m 2,6 km/h (1 Bft)
01.11.2013 00:58 10,9 C 8,9 C 82 % 1018,6 hPa 0,0 l/m 0 min 2 min 0,0 UV-I 0 W/m 12,9 km/h (3 Bft)
01.11.2013 01:00 10,8 C 8,9 C 82 % 1018,6 hPa 0,0 l/m 0 min 2 min 0,0 UV-I 0 W/m 5,1 km/h (1 Bft)
01.11.2013 01:02 10,8 C 8,9 C 83 % 1018,6 hPa 0,0 l/m 0 min 2 min 0,0 UV-I 0 W/m 0,0 km/h (0 Bft)
01.11.2013 01:04 10,8 C 8,9 C 83 % 1018,6 hPa 0,0 l/m 0 min 2 min 0,0 UV-I 0 W/m 15,4 km/h (3 Bft)
01.11.2013 01:06 10,7 C 8,9 C 83 % 1018,7 hPa 0,0 l/m 0 min 2 min 0,0 UV-I 0 W/m 7,7 km/h (2 Bft)
01.11.2013 01:08 10,7 C 8,9 C 83 % 1018,6 hPa 0,0 l/m 0 min 2 min 0,0 UV-I 0 W/m 10,3 km/h (2 Bft)
01.11.2013 01:10 10,7 C 8,3 C 84 % 1018,7 hPa 0,0 l/m 0 min 2 min 0,0 UV-I 0 W/m 10,3 km/h (2 Bft)
01.11.2013 01:12 10,7 C 8,3 C 84 % 1018,6 hPa 0,0 l/m 0 min 2 min 0,0 UV-I 0 W/m 0,0 km/h (0 Bft)
01.11.2013 01:14 10,6 C 8,3 C 85 % 1018,6 hPa 0,0 l/m 0 min 2 min 0,0 UV-I 0 W/m 0,0 km/h (0 Bft)
01.11.2013 01:16 10,6 C 8,3 C 85 % 1018,6 hPa 0,0 l/m 0 min 2 min 0,0 UV-I 0 W/m 0,0 km/h (0 Bft)
01.11.2013 01:18 10,5 C 8,3 C 85 % 1018,6 hPa 0,0 l/m 0 min 2 min 0,0 UV-I 0 W/m 12,9 km/h (3 Bft)
01.11.2013 01:20 10,4 C 8,3 C 86 % 1018,6 hPa 0,0 l/m 0 min 2 min 0,0 UV-I 0 W/m 7,7 km/h (2 Bft)
01.11.2013 01:22 10,4 C 8,3 C 86 % 1018,6 hPa 0,0 l/m 0 min 2 min 0,0 UV-I 0 W/m 2,6 km/h (1 Bft)
01.11.2013 01:24 10,3 C 8,3 C 86 % 1018,6 hPa 0,0 l/m 0 min 2 min 0,0 UV-I 0 W/m 7,7 km/h (2 Bft)
01.11.2013 01:26 10,3 C 7,8 C 87 % 1018,6 hPa 0,0 l/m 0 min 2 min 0,0 UV-I 0 W/m 2,6 km/h (1 Bft)
01.11.2013 01:28 10,2 C 7,8 C 87 % 1018,5 hPa 0,0 l/m 0 min 2 min 0,0 UV-I 0 W/m 7,7 km/h (2 Bft)
01.11.2013 01:30 10,2 C 7,8 C 87 % 1018,6 hPa 0,0 l/m 0 min 2 min 0,0 UV-I 0 W/m 18,0 km/h (3 Bft)
01.11.2013 01:32 10,2 C 7,8 C 87 % 1018,5 hPa 0,0 l/m 0 min 2 min 0,0 UV-I 0 W/m 7,7 km/h (2 Bft)
01.11.2013 01:34 10,2 C 7,8 C 88 % 1018,5 hPa 0,0 l/m 0 min 2 min 0,0 UV-I 0 W/m 10,3 km/h (2 Bft)
01.11.2013 01:36 10,2 C 7,8 C 88 % 1018,5 hPa 0,0 l/m 0 min 2 min 0,0 UV-I 0 W/m 7,7 km/h (2 Bft)
01.11.2013 01:38 10,1 C 7,8 C 88 % 1018,5 hPa 0,0 l/m 0 min 2 min 0,0 UV-I 0 W/m 7,7 km/h (2 Bft)
01.11.2013 01:40 10,1 C 7,8 C 88 % 1018,5 hPa 0,0 l/m 0 min 2 min 0,0 UV-I 0 W/m 12,9 km/h (3 Bft)
01.11.2013 01:42 10,1 C 7,8 C 88 % 1018,5 hPa 0,0 l/m 0 min 2 min 0,0 UV-I 0 W/m 15,4 km/h (3 Bft)
01.11.2013 01:44 10,1 C 7,8 C 88 % 1018,4 hPa 0,0 l/m 0 min 2 min 0,0 UV-I 0 W/m 0,0 km/h (0 Bft)
01.11.2013 01:46 10,0 C 7,8 C 88 % 1018,4 hPa 0,0 l/m 0 min 2 min 0,0 UV-I 0 W/m 15,4 km/h (3 Bft)
01.11.2013 01:48 10,0 C 7,8 C 89 % 1018,4 hPa 0,0 l/m 0 min 0 min 0,0 UV-I 0 W/m 7,7 km/h (2 Bft)
01.11.2013 01:50 10,0 C 7,8 C 89 % 1018,4 hPa 0,0 l/m 0 min 2 min 0,0 UV-I 0 W/m 2,6 km/h (1 Bft)
01.11.2013 01:52 9,9 C 7,8 C 89 % 1018,4 hPa 0,0 l/m 0 min 0 min 0,0 UV-I 0 W/m 7,7 km/h (2 Bft)
01.11.2013 01:54 9,9 C 7,8 C 89 % 1018,4 hPa 0,0 l/m 0 min 0 min 0,0 UV-I 0 W/m 2,6 km/h (1 Bft)
01.11.2013 01:56 9,9 C 7,8 C 89 % 1018,4 hPa 0,0 l/m 0 min 0 min 0,0 UV-I 0 W/m 12,9 km/h (3 Bft)
01.11.2013 01:58 9,9 C 7,8 C 89 % 1018,4 hPa 0,0 l/m 0 min 0 min 0,0 UV-I 0 W/m 10,3 km/h (2 Bft)
01.11.2013 02:00 9,9 C 7,8 C 89 % 1018,3 hPa 0,0 l/m 0 min 0 min 0,0 UV-I 0 W/m 10,3 km/h (2 Bft)
01.11.2013 02:02 9,9 C 7,8 C 89 % 1018,3 hPa 0,0 l/m 0 min 0 min 0,0 UV-I 0 W/m 0,0 km/h (0 Bft)
01.11.2013 02:04 9,9 C 7,8 C 89 % 1018,3 hPa 0,0 l/m 0 min 0 min 0,0 UV-I 0 W/m 2,6 km/h (1 Bft)
01.11.2013 02:06 9,9 C 7,8 C 89 % 1018,3 hPa 0,0 l/m 0 min 0 min 0,0 UV-I 0 W/m 0,0 km/h (0 Bft)
01.11.2013 02:08 9,9 C 7,8 C 89 % 1018,3 hPa 0,0 l/m 0 min 0 min 0,0 UV-I 0 W/m 2,6 km/h (1 Bft)
01.11.2013 02:10 9,9 C 7,8 C 89 % 1018,3 hPa 0,0 l/m 0 min 0 min 0,0 UV-I 0 W/m 10,3 km/h (2 Bft)
01.11.2013 02:12 9,9 C 7,8 C 89 % 1018,3 hPa 0,0 l/m 0 min 0 min 0,0 UV-I 0 W/m 2,6 km/h (1 Bft)
01.11.2013 02:14 10,0 C 7,8 C 89 % 1018,2 hPa 0,0 l/m 0 min 0 min 0,0 UV-I 0 W/m 2,6 km/h (1 Bft)
01.11.2013 02:16 10,0 C 7,8 C 89 % 1018,1 hPa 0,0 l/m 0 min 0 min 0,0 UV-I 0 W/m 10,3 km/h (2 Bft)
01.11.2013 02:18 10,1 C 7,8 C 89 % 1018,2 hPa 0,0 l/m 0 min 0 min 0,0 UV-I 0 W/m 0,0 km/h (0 Bft)
01.11.2013 02:20 10,1 C 7,8 C 88 % 1018,1 hPa 0,0 l/m 0 min 0 min 0,0 UV-I 0 W/m 5,1 km/h (1 Bft)
01.11.2013 02:22 10,1 C 7,8 C 88 % 1018,2 hPa 0,0 l/m 0 min 0 min 0,0 UV-I 0 W/m 7,7 km/h (2 Bft)
01.11.2013 02:24 10,1 C 7,8 C 88 % 1018,2 hPa 0,0 l/m 0 min 0 min 0,0 UV-I 0 W/m 2,6 km/h (1 Bft)
01.11.2013 02:26 10,1 C 7,8 C 88 % 1018,0 hPa 0,0 l/m 0 min 0 min 0,0 UV-I 0 W/m 15,4 km/h (3 Bft)
01.11.2013 02:28 10,1 C 7,8 C 88 % 1018,0 hPa 0,0 l/m 0 min 0 min 0,0 UV-I 0 W/m 10,3 km/h (2 Bft)
01.11.2013 02:30 10,1 C 7,8 C 88 % 1017,9 hPa 0,0 l/m 0 min 0 min 0,0 UV-I 0 W/m 2,6 km/h (1 Bft)
01.11.2013 02:32 10,1 C 7,8 C 88 % 1017,9 hPa 0,0 l/m 0 min 0 min 0,0 UV-I 0 W/m 5,1 km/h (1 Bft)
01.11.2013 02:34 10,1 C 7,8 C 88 % 1017,9 hPa 0,0 l/m 0 min 0 min 0,0 UV-I 0 W/m 10,3 km/h (2 Bft)
01.11.2013 02:36 10,2 C 7,8 C 87 % 1017,9 hPa 0,0 l/m 0 min 0 min 0,0 UV-I 0 W/m 10,3 km/h (2 Bft)
01.11.2013 02:38 10,2 C 7,8 C 87 % 1017,8 hPa 0,0 l/m 0 min 0 min 0,0 UV-I 0 W/m 0,0 km/h (0 Bft)
01.11.2013 02:40 10,1 C 7,8 C 87 % 1017,9 hPa 0,0 l/m 0 min 0 min 0,0 UV-I 0 W/m 15,4 km/h (3 Bft)
01.11.2013 02:42 10,1 C 7,8 C 87 % 1017,8 hPa 0,0 l/m 0 min 0 min 0,0 UV-I 0 W/m 12,9 km/h (3 Bft)
01.11.2013 02:44 10,2 C 7,8 C 87 % 1017,9 hPa 0,0 l/m 0 min 0 min 0,0 UV-I 0 W/m 12,9 km/h (3 Bft)
01.11.2013 02:46 10,2 C 7,8 C 87 % 1017,8 hPa 0,0 l/m 0 min 0 min 0,0 UV-I 0 W/m 7,7 km/h (2 Bft)
01.11.2013 02:48 10,2 C 7,8 C 87 % 1017,8 hPa 0,0 l/m 0 min 0 min 0,0 UV-I 0 W/m 7,7 km/h (2 Bft)
01.11.2013 02:50 10,2 C 7,8 C 87 % 1017,8 hPa 0,0 l/m 0 min 0 min 0,0 UV-I 0 W/m 0,0 km/h (0 Bft)
01.11.2013 02:52 10,2 C 7,8 C 87 % 1017,8 hPa 0,0 l/m 0 min 0 min 0,0 UV-I 0 W/m 2,6 km/h (1 Bft)
01.11.2013 02:54 10,2 C 7,8 C 87 % 1017,7 hPa 0,0 l/m 0 min 0 min 0,0 UV-I 0 W/m 0,0 km/h (0 Bft)
01.11.2013 02:56 10,2 C 8,3 C 87 % 1017,6 hPa 0,0 l/m 0 min 0 min 0,0 UV-I 0 W/m 12,9 km/h (3 Bft)
01.11.2013 02:58 10,2 C 8,3 C 87 % 1017,7 hPa 0,0 l/m 0 min 0 min 0,0 UV-I 0 W/m 7,7 km/h (2 Bft)
01.11.2013 03:00 10,2 C 8,3 C 87 % 1017,6 hPa 0,0 l/m 0 min 0 min 0,0 UV-I 0 W/m 7,7 km/h (2 Bft)
01.11.2013 03:02 10,2 C 8,3 C 87 % 1017,6 hPa 0,0 l/m 0 min 0 min 0,0 UV-I 0 W/m 10,3 km/h (2 Bft)
01.11.2013 03:04 10,2 C 8,3 C 87 % 1017,7 hPa 0,0 l/m 0 min 0 min 0,0 UV-I 0 W/m 23,2 km/h (4 Bft)
01.11.2013 03:06 10,2 C 8,3 C 86 % 1017,6 hPa 0,0 l/m 0 min 0 min 0,0 UV-I 0 W/m 0,0 km/h (0 Bft)
01.11.2013 03:08 10,2 C 8,9 C 86 % 1017,6 hPa 0,0 l/m 0 min 0 min 0,0 UV-I 0 W/m 7,7 km/h (2 Bft)
01.11.2013 03:10 10,2 C 8,9 C 86 % 1017,5 hPa 0,0 l/m 0 min 0 min 0,0 UV-I 0 W/m 18,0 km/h (3 Bft)
01.11.2013 03:12 10,2 C 8,9 C 86 % 1017,5 hPa 0,0 l/m 0 min 0 min 0,0 UV-I 0 W/m 12,9 km/h (3 Bft)
01.11.2013 03:14 10,3 C 8,9 C 86 % 1017,6 hPa 0,0 l/m 0 min 0 min 0,0 UV-I 0 W/m 7,7 km/h (2 Bft)
01.11.2013 03:16 10,3 C 8,9 C 86 % 1017,7 hPa 0,0 l/m 0 min 0 min 0,0 UV-I 0 W/m 15,4 km/h (3 Bft)
01.11.2013 03:18 10,3 C 8,9 C 86 % 1017,6 hPa 0,0 l/m 0 min 0 min 0,0 UV-I 0 W/m 10,3 km/h (2 Bft)
01.11.2013 03:20 10,3 C 8,9 C 86 % 1017,6 hPa 0,0 l/m 0 min 0 min 0,0 UV-I 0 W/m 7,7 km/h (2 Bft)
01.11.2013 03:22 10,3 C 8,9 C 86 % 1017,5 hPa 0,0 l/m 0 min 0 min 0,0 UV-I 0 W/m 10,3 km/h (2 Bft)
01.11.2013 03:24 10,3 C 8,9 C 86 % 1017,5 hPa 0,0 l/m 0 min 0 min 0,0 UV-I 0 W/m 18,0 km/h (3 Bft)
01.11.2013 03:26 10,3 C 8,9 C 86 % 1017,5 hPa 0,0 l/m 0 min 0 min 0,0 UV-I 0 W/m 10,3 km/h (2 Bft)
01.11.2013 03:28 10,3 C 8,9 C 86 % 1017,5 hPa 0,0 l/m 0 min 0 min 0,0 UV-I 0 W/m 2,6 km/h (1 Bft)
01.11.2013 03:30 10,3 C 8,9 C 86 % 1017,5 hPa 0,0 l/m 0 min 0 min 0,0 UV-I 0 W/m 12,9 km/h (3 Bft)
01.11.2013 03:32 10,4 C 8,9 C 86 % 1017,4 hPa 0,0 l/m 0 min 0 min 0,0 UV-I 0 W/m 5,1 km/h (1 Bft)
01.11.2013 03:34 10,3 C 8,9 C 86 % 1017,5 hPa 0,0 l/m 0 min 0 min 0,0 UV-I 0 W/m 18,0 km/h (3 Bft)
01.11.2013 03:36 10,4 C 8,9 C 86 % 1017,5 hPa 0,0 l/m 0 min 0 min 0,0 UV-I 0 W/m 12,9 km/h (3 Bft)
01.11.2013 03:38 10,4 C 8,9 C 86 % 1017,4 hPa 0,0 l/m 0 min 0 min 0,0 UV-I 0 W/m 18,0 km/h (3 Bft)
01.11.2013 03:40 10,4 C 8,9 C 86 % 1017,4 hPa 0,0 l/m 0 min 0 min 0,0 UV-I 0 W/m 15,4 km/h (3 Bft)
01.11.2013 03:42 10,4 C 8,9 C 86 % 1017,4 hPa 0,0 l/m 0 min 0 min 0,0 UV-I 0 W/m 10,3 km/h (2 Bft)
01.11.2013 03:44 10,4 C 8,9 C 86 % 1017,2 hPa 0,0 l/m 0 min 0 min 0,0 UV-I 0 W/m 2,6 km/h (1 Bft)
01.11.2013 03:46 10,4 C 8,9 C 86 % 1017,2 hPa 0,0 l/m 0 min 0 min 0,0 UV-I 0 W/m 2,6 km/h (1 Bft)
01.11.2013 03:48 10,4 C 8,9 C 86 % 1017,2 hPa 0,0 l/m 0 min 0 min 0,0 UV-I 0 W/m 15,4 km/h (3 Bft)
01.11.2013 03:50 10,4 C 8,9 C 85 % 1017,1 hPa 0,0 l/m 0 min 0 min 0,0 UV-I 0 W/m 7,7 km/h (2 Bft)
01.11.2013 03:52 10,4 C 8,9 C 85 % 1017,1 hPa 0,0 l/m 0 min 0 min 0,0 UV-I 0 W/m 15,4 km/h (3 Bft)
01.11.2013 03:54 10,4 C 8,9 C 85 % 1017,1 hPa 0,0 l/m 0 min 0 min 0,0 UV-I 0 W/m 10,3 km/h (2 Bft)
01.11.2013 03:56 10,4 C 8,9 C 85 % 1017,0 hPa 0,0 l/m 0 min 0 min 0,0 UV-I 0 W/m 10,3 km/h (2 Bft)
01.11.2013 03:58 10,4 C 8,9 C 85 % 1017,1 hPa 0,0 l/m 0 min 0 min 0,0 UV-I 0 W/m 10,3 km/h (2 Bft)
01.11.2013 04:00 10,4 C 8,9 C 85 % 1017,0 hPa 0,0 l/m 0 min 0 min 0,0 UV-I 0 W/m 7,7 km/h (2 Bft)
01.11.2013 04:05 10,4 C 8,9 C 85 % 1017,0 hPa 0,0 l/m 0 min 0 min 0,0 UV-I 0 W/m 0,0 km/h (0 Bft)
01.11.2013 04:06 10,4 C 8,9 C 85 % 1017,0 hPa 0,0 l/m 0 min 0 min 0,0 UV-I 0 W/m 0,0 km/h (0 Bft)
01.11.2013 04:08 10,4 C 8,9 C 85 % 1017,0 hPa 0,0 l/m 0 min 0 min 0,0 UV-I 0 W/m 5,1 km/h (1 Bft)
01.11.2013 04:10 10,4 C 8,9 C 85 % 1017,0 hPa 0,0 l/m 0 min 0 min 0,0 UV-I 0 W/m 5,1 km/h (1 Bft)
01.11.2013 04:12 10,4 C 8,9 C 85 % 1017,0 hPa 0,0 l/m 0 min 0 min 0,0 UV-I 0 W/m 7,7 km/h (2 Bft)
01.11.2013 04:14 10,4 C 8,9 C 85 % 1017,0 hPa 0,0 l/m 0 min 0 min 0,0 UV-I 0 W/m 7,7 km/h (2 Bft)
01.11.2013 04:16 10,4 C 8,9 C 86 % 1017,0 hPa 0,0 l/m 0 min 0 min 0,0 UV-I 0 W/m 10,3 km/h (2 Bft)
01.11.2013 04:18 10,4 C 8,9 C 85 % 1017,0 hPa 0,0 l/m 0 min 0 min 0,0 UV-I 0 W/m 12,9 km/h (3 Bft)
01.11.2013 04:20 10,4 C 8,9 C 85 % 1016,9 hPa 0,0 l/m 0 min 0 min 0,0 UV-I 0 W/m 7,7 km/h (2 Bft)
01.11.2013 04:22 10,4 C 8,9 C 85 % 1017,0 hPa 0,0 l/m 0 min 0 min 0,0 UV-I 0 W/m 2,6 km/h (1 Bft)
01.11.2013 04:24 10,4 C 8,9 C 85 % 1017,0 hPa 0,0 l/m 0 min 0 min 0,0 UV-I 0 W/m 0,0 km/h (0 Bft)
01.11.2013 04:26 10,4 C 8,9 C 85 % 1017,0 hPa 0,0 l/m 0 min 0 min 0,0 UV-I 0 W/m 2,6 km/h (1 Bft)
01.11.2013 04:28 10,4 C 8,9 C 85 % 1017,0 hPa 0,0 l/m 0 min 0 min 0,0 UV-I 0 W/m 18,0 km/h (3 Bft)
01.11.2013 04:30 10,4 C 8,9 C 85 % 1017,1 hPa 0,0 l/m 0 min 0 min 0,0 UV-I 0 W/m 5,1 km/h (1 Bft)
01.11.2013 04:32 10,4 C 8,9 C 86 % 1017,0 hPa 0,0 l/m 0 min 0 min 0,0 UV-I 0 W/m 12,9 km/h (3 Bft)
01.11.2013 04:34 10,4 C 8,9 C 86 % 1017,0 hPa 0,0 l/m 0 min 0 min 0,0 UV-I 0 W/m 0,0 km/h (0 Bft)
01.11.2013 04:36 10,4 C 8,9 C 86 % 1017,0 hPa 0,0 l/m 0 min 0 min 0,0 UV-I 0 W/m 7,7 km/h (2 Bft)
01.11.2013 04:38 10,3 C 8,9 C 86 % 1017,0 hPa 0,0 l/m 0 min 0 min 0,0 UV-I 0 W/m 5,1 km/h (1 Bft)
01.11.2013 04:40 10,4 C 8,9 C 86 % 1017,0 hPa 0,0 l/m 0 min 0 min 0,0 UV-I 0 W/m 2,6 km/h (1 Bft)
01.11.2013 04:42 10,3 C 8,9 C 86 % 1017,0 hPa 0,0 l/m 0 min 0 min 0,0 UV-I 0 W/m 0,0 km/h (0 Bft)
01.11.2013 04:44 10,3 C 8,9 C 86 % 1017,0 hPa 0,0 l/m 0 min 0 min 0,0 UV-I 0 W/m 0,0 km/h (0 Bft)
01.11.2013 04:46 10,3 C 8,9 C 86 % 1017,0 hPa 0,0 l/m 0 min 0 min 0,0 UV-I 0 W/m 15,4 km/h (3 Bft)
01.11.2013 04:48 10,3 C 8,9 C 86 % 1016,9 hPa 0,0 l/m 0 min 0 min 0,0 UV-I 0 W/m 7,7 km/h (2 Bft)
01.11.2013 04:50 10,4 C 8,9 C 86 % 1016,8 hPa 0,0 l/m 0 min 0 min 0,0 UV-I 0 W/m 5,1 km/h (1 Bft)
01.11.2013 04:52 10,4 C 8,9 C 86 % 1016,8 hPa 0,0 l/m 0 min 0 min 0,0 UV-I 0 W/m 7,7 km/h (2 Bft)
01.11.2013 04:54 10,4 C 8,9 C 86 % 1016,8 hPa 0,0 l/m 0 min 0 min 0,0 UV-I 0 W/m 2,6 km/h (1 Bft)
01.11.2013 04:56 10,4 C 8,9 C 86 % 1016,8 hPa 0,0 l/m 0 min 0 min 0,0 UV-I 0 W/m 7,7 km/h (2 Bft)
01.11.2013 04:58 10,4 C 8,9 C 86 % 1016,7 hPa 0,0 l/m 0 min 0 min 0,0 UV-I 0 W/m 10,3 km/h (2 Bft)
01.11.2013 05:00 10,4 C 8,9 C 86 % 1016,7 hPa 0,0 l/m 0 min 0 min 0,0 UV-I 0 W/m 7,7 km/h (2 Bft)
01.11.2013 05:02 10,4 C 8,9 C 86 % 1016,7 hPa 0,0 l/m 0 min 0 min 0,0 UV-I 0 W/m 2,6 km/h (1 Bft)
01.11.2013 05:04 10,4 C 8,9 C 86 % 1016,7 hPa 0,0 l/m 0 min 0 min 0,0 UV-I 0 W/m 2,6 km/h (1 Bft)
01.11.2013 05:06 10,4 C 8,9 C 86 % 1016,7 hPa 0,0 l/m 0 min 0 min 0,0 UV-I 0 W/m 0,0 km/h (0 Bft)
01.11.2013 05:08 10,4 C 8,9 C 86 % 1016,7 hPa 0,0 l/m 0 min 0 min 0,0 UV-I 0 W/m 2,6 km/h (1 Bft)
01.11.2013 05:10 10,4 C 8,9 C 86 % 1016,6 hPa 0,0 l/m 0 min 0 min 0,0 UV-I 0 W/m 2,6 km/h (1 Bft)
01.11.2013 05:12 10,4 C 8,9 C 86 % 1016,6 hPa 0,0 l/m 0 min 0 min 0,0 UV-I 0 W/m 0,0 km/h (0 Bft)
01.11.2013 05:14 10,3 C 8,9 C 87 % 1016,6 hPa 0,0 l/m 0 min 0 min 0,0 UV-I 0 W/m 0,0 km/h (0 Bft)
01.11.2013 05:16 10,3 C 8,9 C 87 % 1016,6 hPa 0,0 l/m 0 min 0 min 0,0 UV-I 0 W/m 7,7 km/h (2 Bft)
01.11.2013 05:18 10,3 C 8,9 C 86 % 1016,5 hPa 0,0 l/m 0 min 0 min 0,0 UV-I 0 W/m 5,1 km/h (1 Bft)
01.11.2013 05:20 10,3 C 8,9 C 87 % 1016,6 hPa 0,0 l/m 0 min 0 min 0,0 UV-I 0 W/m 2,6 km/h (1 Bft)
01.11.2013 05:22 10,3 C 8,9 C 87 % 1016,6 hPa 0,0 l/m 0 min 0 min 0,0 UV-I 0 W/m 0,0 km/h (0 Bft)
01.11.2013 05:24 10,2 C 8,9 C 87 % 1016,5 hPa 0,0 l/m 0 min 0 min 0,0 UV-I 0 W/m 2,6 km/h (1 Bft)
01.11.2013 05:26 10,2 C 8,9 C 87 % 1016,5 hPa 0,0 l/m 0 min 0 min 0,0 UV-I 0 W/m 0,0 km/h (0 Bft)
01.11.2013 05:28 10,2 C 8,9 C 87 % 1016,6 hPa 0,0 l/m 0 min 0 min 0,0 UV-I 0 W/m 0,0 km/h (0 Bft)
01.11.2013 05:30 10,2 C 8,9 C 87 % 1016,5 hPa 0,0 l/m 0 min 0 min 0,0 UV-I 0 W/m 0,0 km/h (0 Bft)
01.11.2013 05:32 10,1 C 8,9 C 87 % 1016,5 hPa 0,0 l/m 0 min 0 min 0,0 UV-I 0 W/m 0,0 km/h (0 Bft)
01.11.2013 05:34 10,1 C 8,9 C 87 % 1016,6 hPa 0,0 l/m 0 min 0 min 0,0 UV-I 0 W/m 0,0 km/h (0 Bft)
01.11.2013 05:36 10,1 C 8,9 C 88 % 1016,6 hPa 0,0 l/m 0 min 0 min 0,0 UV-I 0 W/m 0,0 km/h (0 Bft)
01.11.2013 05:38 10,1 C 8,9 C 88 % 1016,7 hPa 0,0 l/m 0 min 0 min 0,0 UV-I 0 W/m 7,7 km/h (2 Bft)
01.11.2013 05:40 10,1 C 8,9 C 88 % 1016,6 hPa 0,0 l/m 0 min 0 min 0,0 UV-I 0 W/m 12,9 km/h (3 Bft)
01.11.2013 05:42 10,2 C 8,9 C 88 % 1016,6 hPa 0,0 l/m 0 min 0 min 0,0 UV-I 0 W/m 12,9 km/h (3 Bft)
01.11.2013 05:44 10,2 C 8,9 C 88 % 1016,5 hPa 0,0 l/m 0 min 0 min 0,0 UV-I 0 W/m 12,9 km/h (3 Bft)
01.11.2013 05:46 10,2 C 8,9 C 88 % 1016,5 hPa 0,0 l/m 0 min 0 min 0,0 UV-I 0 W/m 10,3 km/h (2 Bft)
01.11.2013 05:48 10,3 C 8,9 C 87 % 1016,5 hPa 0,0 l/m 0 min 0 min 0,0 UV-I 0 W/m 10,3 km/h (2 Bft)
01.11.2013 05:50 10,3 C 8,9 C 87 % 1016,5 hPa 0,0 l/m 0 min 0 min 0,0 UV-I 0 W/m 0,0 km/h (0 Bft)
01.11.2013 05:52 10,3 C 8,9 C 87 % 1016,5 hPa 0,0 l/m 0 min 0 min 0,0 UV-I 0 W/m 10,3 km/h (2 Bft)
01.11.2013 05:54 10,3 C 8,9 C 87 % 1016,5 hPa 0,0 l/m 0 min 0 min 0,0 UV-I 0 W/m 10,3 km/h (2 Bft)
01.11.2013 05:56 10,3 C 8,9 C 87 % 1016,5 hPa 0,0 l/m 0 min 0 min 0,0 UV-I 0 W/m 5,1 km/h (1 Bft)
01.11.2013 05:58 10,3 C 8,9 C 87 % 1016,6 hPa 0,0 l/m 0 min 0 min 0,0 UV-I 0 W/m 0,0 km/h (0 Bft)
01.11.2013 06:00 10,3 C 8,9 C 87 % 1016,6 hPa 0,0 l/m 0 min 0 min 0,0 UV-I 0 W/m 2,6 km/h (1 Bft)
01.11.2013 06:02 10,3 C 8,9 C 87 % 1016,6 hPa 0,0 l/m 0 min 0 min 0,0 UV-I 0 W/m 10,3 km/h (2 Bft)
01.11.2013 06:06 10,4 C 9,4 C 87 % 1016,6 hPa 0,0 l/m 0 min 0 min 0,0 UV-I 0 W/m 10,3 km/h (2 Bft)
01.11.2013 06:08 10,4 C 9,4 C 87 % 1016,6 hPa 0,0 l/m 0 min 0 min 0,0 UV-I 0 W/m 2,6 km/h (1 Bft)
01.11.2013 06:10 10,4 C 9,4 C 87 % 1016,6 hPa 0,0 l/m 0 min 0 min 0,0 UV-I 0 W/m 5,1 km/h (1 Bft)
01.11.2013 06:12 10,4 C 9,4 C 87 % 1016,6 hPa 0,0 l/m 0 min 0 min 0,0 UV-I 0 W/m 10,3 km/h (2 Bft)
01.11.2013 06:14 10,4 C 9,4 C 87 % 1016,5 hPa 0,0 l/m 0 min 0 min 0,0 UV-I 0 W/m 7,7 km/h (2 Bft)
01.11.2013 06:16 10,4 C 9,4 C 87 % 1016,5 hPa 0,0 l/m 0 min 0 min 0,0 UV-I 0 W/m 0,0 km/h (0 Bft)
01.11.2013 06:18 10,4 C 9,4 C 87 % 1016,4 hPa 0,0 l/m 0 min 0 min 0,0 UV-I 0 W/m 0,0 km/h (0 Bft)
01.11.2013 06:20 10,4 C 9,4 C 88 % 1016,5 hPa 0,0 l/m 0 min 0 min 0,0 UV-I 0 W/m 10,3 km/h (2 Bft)
01.11.2013 06:22 10,4 C 9,4 C 88 % 1016,4 hPa 0,0 l/m 0 min 0 min 0,0 UV-I 0 W/m 7,7 km/h (2 Bft)
01.11.2013 06:24 10,4 C 9,4 C 88 % 1016,4 hPa 0,0 l/m 0 min 0 min 0,0 UV-I 0 W/m 10,3 km/h (2 Bft)
01.11.2013 06:26 10,4 C 9,4 C 88 % 1016,5 hPa 0,0 l/m 0 min 0 min 0,0 UV-I 0 W/m 7,7 km/h (2 Bft)
01.11.2013 06:28 10,4 C 9,4 C 88 % 1016,4 hPa 0,0 l/m 0 min 0 min 0,0 UV-I 0 W/m 10,3 km/h (2 Bft)
01.11.2013 06:30 10,4 C 9,4 C 88 % 1016,4 hPa 0,0 l/m 0 min 0 min 0,0 UV-I 0 W/m 7,7 km/h (2 Bft)
01.11.2013 06:32 10,4 C 9,4 C 88 % 1016,4 hPa 0,0 l/m 0 min 0 min 0,0 UV-I 0 W/m 10,3 km/h (2 Bft)
01.11.2013 06:34 10,4 C 9,4 C 88 % 1016,4 hPa 0,0 l/m 0 min 0 min 0,0 UV-I 0 W/m 12,9 km/h (3 Bft)
01.11.2013 06:36 10,4 C 9,4 C 88 % 1016,4 hPa 0,0 l/m 0 min 0 min 0,0 UV-I 0 W/m 12,9 km/h (3 Bft)
01.11.2013 06:38 10,4 C 9,4 C 88 % 1016,4 hPa 0,0 l/m 0 min 0 min 0,0 UV-I 0 W/m 2,6 km/h (1 Bft)
01.11.2013 06:40 10,4 C 9,4 C 88 % 1016,4 hPa 0,0 l/m 0 min 0 min 0,0 UV-I 0 W/m 7,7 km/h (2 Bft)
01.11.2013 06:42 10,4 C 9,4 C 88 % 1016,5 hPa 0,0 l/m 0 min 0 min 0,0 UV-I 0 W/m 10,3 km/h (2 Bft)
01.11.2013 06:44 10,4 C 9,4 C 88 % 1016,4 hPa 0,0 l/m 0 min 0 min 0,0 UV-I 0 W/m 2,6 km/h (1 Bft)
01.11.2013 06:46 10,4 C 9,4 C 88 % 1016,4 hPa 0,0 l/m 0 min 0 min 0,0 UV-I 0 W/m 5,1 km/h (1 Bft)
01.11.2013 06:48 10,4 C 9,4 C 88 % 1016,4 hPa 0,0 l/m 0 min 0 min 0,0 UV-I 0 W/m 7,7 km/h (2 Bft)
01.11.2013 06:50 10,4 C 9,4 C 88 % 1016,4 hPa 0,0 l/m 0 min 0 min 0,0 UV-I 0 W/m 10,3 km/h (2 Bft)
01.11.2013 06:52 10,4 C 9,4 C 88 % 1016,3 hPa 0,0 l/m 0 min 0 min 0,0 UV-I 0 W/m 2,6 km/h (1 Bft)
01.11.2013 06:54 10,4 C 9,4 C 88 % 1016,3 hPa 0,0 l/m 0 min 0 min 0,0 UV-I 0 W/m 0,0 km/h (0 Bft)
01.11.2013 06:56 10,4 C 9,4 C 88 % 1016,3 hPa 0,0 l/m 0 min 0 min 0,0 UV-I 0 W/m 2,6 km/h (1 Bft)
01.11.2013 06:58 10,4 C 9,4 C 88 % 1016,4 hPa 0,0 l/m 0 min 0 min 0,0 UV-I 0 W/m 0,0 km/h (0 Bft)
01.11.2013 07:00 10,4 C 9,4 C 89 % 1016,4 hPa 0,0 l/m 0 min 0 min 0,0 UV-I 0 W/m 2,6 km/h (1 Bft)
01.11.2013 07:02 10,4 C 9,4 C 89 % 1016,5 hPa 0,0 l/m 0 min 0 min 0,0 UV-I 0 W/m 15,4 km/h (3 Bft)
01.11.2013 07:04 10,4 C 9,4 C 89 % 1016,4 hPa 0,0 l/m 0 min 0 min 0,0 UV-I 0 W/m 10,3 km/h (2 Bft)
01.11.2013 07:06 10,4 C 9,4 C 89 % 1016,4 hPa 0,0 l/m 0 min 0 min 0,0 UV-I 0 W/m 0,0 km/h (0 Bft)
01.11.2013 07:08 10,3 C 8,9 C 89 % 1016,5 hPa 0,0 l/m 0 min 0 min 0,0 UV-I 0 W/m 0,0 km/h (0 Bft)
01.11.2013 07:10 10,3 C 8,9 C 89 % 1016,5 hPa 0,0 l/m 0 min 0 min 0,0 UV-I 0 W/m 5,1 km/h (1 Bft)
01.11.2013 07:12 10,3 C 8,9 C 89 % 1016,5 hPa 0,0 l/m 0 min 0 min 0,0 UV-I 0 W/m 7,7 km/h (2 Bft)
01.11.2013 07:14 10,3 C 8,9 C 89 % 1016,5 hPa 0,0 l/m 0 min 0 min 0,0 UV-I 0 W/m 7,7 km/h (2 Bft)
01.11.2013 07:16 10,3 C 8,9 C 89 % 1016,5 hPa 0,0 l/m 0 min 0 min 0,0 UV-I 0 W/m 7,7 km/h (2 Bft)
01.11.2013 07:18 10,3 C 8,9 C 89 % 1016,5 hPa 0,0 l/m 0 min 0 min 0,0 UV-I 0 W/m 5,1 km/h (1 Bft)
01.11.2013 07:20 10,3 C 8,9 C 89 % 1016,5 hPa 0,0 l/m 0 min 0 min 0,0 UV-I 0 W/m 2,6 km/h (1 Bft)
01.11.2013 07:22 10,3 C 8,9 C 89 % 1016,5 hPa 0,0 l/m 0 min 0 min 0,0 UV-I 0 W/m 0,0 km/h (0 Bft)
01.11.2013 07:24 10,3 C 8,9 C 89 % 1016,5 hPa 0,0 l/m 0 min 0 min 0,0 UV-I 0 W/m 10,3 km/h (2 Bft)
01.11.2013 07:26 10,3 C 8,9 C 89 % 1016,5 hPa 0,0 l/m 0 min 0 min 0,0 UV-I 0 W/m 10,3 km/h (2 Bft)
01.11.2013 07:28 10,3 C 8,9 C 89 % 1016,5 hPa 0,0 l/m 0 min 0 min 0,0 UV-I 0 W/m 2,6 km/h (1 Bft)
01.11.2013 07:30 10,3 C 8,9 C 90 % 1016,4 hPa 0,0 l/m 0 min 0 min 0,0 UV-I 0 W/m 10,3 km/h (2 Bft)
01.11.2013 07:32 10,3 C 8,9 C 90 % 1016,5 hPa 0,0 l/m 0 min 0 min 0,0 UV-I 0 W/m 2,6 km/h (1 Bft)
01.11.2013 07:34 10,3 C 8,9 C 90 % 1016,5 hPa 0,0 l/m 0 min 0 min 0,0 UV-I 0 W/m 2,6 km/h (1 Bft)
01.11.2013 07:36 10,3 C 8,9 C 90 % 1016,5 hPa 0,0 l/m 0 min 0 min 0,0 UV-I 0 W/m 7,7 km/h (2 Bft)
01.11.2013 07:38 10,3 C 8,9 C 90 % 1016,5 hPa 0,0 l/m 0 min 0 min 0,0 UV-I 0 W/m 0,0 km/h (0 Bft)
01.11.2013 07:40 10,2 C 8,9 C 90 % 1016,4 hPa 0,0 l/m 0 min 0 min 0,0 UV-I 0 W/m 12,9 km/h (3 Bft)
01.11.2013 07:42 10,2 C 8,9 C 90 % 1016,4 hPa 0,0 l/m 0 min 0 min 0,0 UV-I 5 W/m 2,6 km/h (1 Bft)
01.11.2013 07:44 10,3 C 8,9 C 90 % 1016,5 hPa 0,0 l/m 0 min 0 min 0,0 UV-I 5 W/m 7,7 km/h (2 Bft)
01.11.2013 07:46 10,3 C 8,9 C 90 % 1016,5 hPa 0,0 l/m 0 min 0 min 0,0 UV-I 5 W/m 10,3 km/h (2 Bft)
01.11.2013 07:48 10,2 C 8,9 C 90 % 1016,5 hPa 0,0 l/m 0 min 0 min 0,0 UV-I 5 W/m 10,3 km/h (2 Bft)
01.11.2013 07:50 10,2 C 8,9 C 90 % 1016,5 hPa 0,0 l/m 0 min 0 min 0,0 UV-I 7 W/m 7,7 km/h (2 Bft)
01.11.2013 07:52 10,2 C 8,9 C 90 % 1016,5 hPa 0,0 l/m 0 min 0 min 0,0 UV-I 7 W/m 10,3 km/h (2 Bft)
01.11.2013 07:54 10,2 C 8,9 C 90 % 1016,6 hPa 0,0 l/m 0 min 0 min 0,0 UV-I 9 W/m 0,0 km/h (0 Bft)
01.11.2013 07:56 10,2 C 8,9 C 90 % 1016,6 hPa 0,0 l/m 0 min 0 min 0,0 UV-I 11 W/m 7,7 km/h (2 Bft)
01.11.2013 07:58 10,2 C 8,9 C 90 % 1016,6 hPa 0,0 l/m 0 min 0 min 0,0 UV-I 12 W/m 0,0 km/h (0 Bft)
01.11.2013 08:00 10,2 C 8,9 C 90 % 1016,6 hPa 0,0 l/m 0 min 0 min 0,0 UV-I 14 W/m 5,1 km/h (1 Bft)
01.11.2013 08:02 10,2 C 8,9 C 90 % 1016,6 hPa 0,0 l/m 0 min 0 min 0,0 UV-I 14 W/m 5,1 km/h (1 Bft)
01.11.2013 08:04 10,2 C 8,9 C 90 % 1016,6 hPa 0,0 l/m 0 min 0 min 0,0 UV-I 16 W/m 5,1 km/h (1 Bft)
01.11.2013 08:06 10,2 C 8,9 C 90 % 1016,6 hPa 0,0 l/m 0 min 0 min 0,0 UV-I 18 W/m 0,0 km/h (0 Bft)
01.11.2013 08:08 10,2 C 8,9 C 90 % 1016,6 hPa 0,0 l/m 0 min 0 min 0,0 UV-I 19 W/m 2,6 km/h (1 Bft)
01.11.2013 08:10 10,2 C 8,9 C 90 % 1016,5 hPa 0,0 l/m 0 min 2 min 0,0 UV-I 21 W/m 5,1 km/h (1 Bft)
01.11.2013 08:12 10,2 C 8,9 C 90 % 1016,6 hPa 0,2 l/m 0 min 2 min 0,0 UV-I 25 W/m 0,0 km/h (0 Bft)
01.11.2013 08:14 10,3 C 8,9 C 90 % 1016,6 hPa 0,0 l/m 0 min 2 min 0,0 UV-I 25 W/m 0,0 km/h (0 Bft)
01.11.2013 08:16 10,2 C 8,9 C 90 % 1016,6 hPa 0,0 l/m 0 min 0 min 0,0 UV-I 25 W/m 0,0 km/h (0 Bft)
01.11.2013 08:18 10,3 C 9,4 C 90 % 1016,5 hPa 0,0 l/m 0 min 0 min 0,0 UV-I 25 W/m 5,1 km/h (1 Bft)
01.11.2013 08:20 10,3 C 9,4 C 90 % 1016,5 hPa 0,0 l/m 0 min 0 min 0,0 UV-I 25 W/m 0,0 km/h (0 Bft)
01.11.2013 08:22 10,3 C 9,4 C 90 % 1016,6 hPa 0,0 l/m 0 min 0 min 0,0 UV-I 26 W/m 7,7 km/h (2 Bft)
01.11.2013 08:24 10,3 C 9,4 C 90 % 1016,5 hPa 0,0 l/m 0 min 0 min 0,0 UV-I 26 W/m 7,7 km/h (2 Bft)
01.11.2013 08:26 10,3 C 9,4 C 89 % 1016,5 hPa 0,0 l/m 0 min 0 min 0,0 UV-I 26 W/m 5,1 km/h (1 Bft)
01.11.2013 08:28 10,3 C 9,4 C 89 % 1016,6 hPa 0,0 l/m 0 min 0 min 0,0 UV-I 26 W/m 7,7 km/h (2 Bft)
01.11.2013 08:30 10,3 C 9,4 C 89 % 1016,5 hPa 0,0 l/m 0 min 0 min 0,0 UV-I 28 W/m 2,6 km/h (1 Bft)
01.11.2013 08:32 10,3 C 9,4 C 89 % 1016,4 hPa 0,0 l/m 0 min 0 min 0,0 UV-I 30 W/m 5,1 km/h (1 Bft)
01.11.2013 08:34 10,4 C 9,4 C 89 % 1016,4 hPa 0,0 l/m 0 min 0 min 0,0 UV-I 32 W/m 0,0 km/h (0 Bft)
01.11.2013 08:36 10,4 C 9,4 C 89 % 1016,6 hPa 0,0 l/m 0 min 0 min 0,0 UV-I 33 W/m 5,1 km/h (1 Bft)
01.11.2013 08:38 10,4 C 9,4 C 89 % 1016,5 hPa 0,0 l/m 0 min 0 min 0,0 UV-I 33 W/m 5,1 km/h (1 Bft)
01.11.2013 08:40 10,4 C 9,4 C 89 % 1016,5 hPa 0,0 l/m 0 min 0 min 0,0 UV-I 33 W/m 7,7 km/h (2 Bft)
01.11.2013 08:42 10,4 C 9,4 C 89 % 1016,6 hPa 0,0 l/m 0 min 0 min 0,0 UV-I 33 W/m 7,7 km/h (2 Bft)
01.11.2013 08:44 10,4 C 9,4 C 89 % 1016,6 hPa 0,0 l/m 0 min 0 min 0,0 UV-I 35 W/m 2,6 km/h (1 Bft)
01.11.2013 08:46 10,4 C 9,4 C 89 % 1016,5 hPa 0,0 l/m 0 min 0 min 0,0 UV-I 37 W/m 2,6 km/h (1 Bft)
01.11.2013 08:48 10,4 C 9,4 C 89 % 1016,5 hPa 0,0 l/m 0 min 0 min 0,0 UV-I 39 W/m 2,6 km/h (1 Bft)
01.11.2013 08:50 10,5 C 9,4 C 89 % 1016,6 hPa 0,0 l/m 0 min 0 min 0,0 UV-I 40 W/m 7,7 km/h (2 Bft)
01.11.2013 08:52 10,5 C 9,4 C 89 % 1016,6 hPa 0,0 l/m 0 min 0 min 0,0 UV-I 40 W/m 0,0 km/h (0 Bft)
01.11.2013 08:54 10,5 C 9,4 C 88 % 1016,5 hPa 0,0 l/m 0 min 0 min 0,0 UV-I 40 W/m 7,7 km/h (2 Bft)
01.11.2013 08:56 10,6 C 9,4 C 88 % 1016,5 hPa 0,0 l/m 0 min 0 min 0,0 UV-I 40 W/m 0,0 km/h (0 Bft)
01.11.2013 08:58 10,6 C 9,4 C 88 % 1016,6 hPa 0,0 l/m 0 min 0 min 0,0 UV-I 40 W/m 5,1 km/h (1 Bft)
01.11.2013 09:00 10,6 C 9,4 C 88 % 1016,6 hPa 0,0 l/m 0 min 0 min 0,0 UV-I 40 W/m 7,7 km/h (2 Bft)
01.11.2013 09:02 10,6 C 9,4 C 88 % 1016,6 hPa 0,0 l/m 0 min 0 min 0,0 UV-I 40 W/m 7,7 km/h (2 Bft)
01.11.2013 09:04 10,6 C 9,4 C 88 % 1016,6 hPa 0,0 l/m 0 min 0 min 0,0 UV-I 42 W/m 10,3 km/h (2 Bft)
01.11.2013 09:06 10,6 C 9,4 C 88 % 1016,6 hPa 0,0 l/m 0 min 0 min 0,0 UV-I 42 W/m 10,3 km/h (2 Bft)
01.11.2013 09:08 10,6 C 9,4 C 88 % 1016,6 hPa 0,0 l/m 0 min 0 min 0,0 UV-I 44 W/m 0,0 km/h (0 Bft)
01.11.2013 09:10 10,7 C 9,4 C 88 % 1016,5 hPa 0,0 l/m 0 min 0 min 0,0 UV-I 42 W/m 10,3 km/h (2 Bft)
01.11.2013 09:12 10,6 C 9,4 C 88 % 1016,6 hPa 0,0 l/m 0 min 0 min 0,0 UV-I 42 W/m 5,1 km/h (1 Bft)
01.11.2013 09:14 10,7 C 9,4 C 88 % 1016,5 hPa 0,0 l/m 0 min 0 min 0,0 UV-I 46 W/m 10,3 km/h (2 Bft)
01.11.2013 09:16 10,7 C 9,4 C 88 % 1016,5 hPa 0,0 l/m 0 min 0 min 0,0 UV-I 53 W/m 10,3 km/h (2 Bft)
01.11.2013 09:18 10,7 C 9,4 C 88 % 1016,6 hPa 0,0 l/m 0 min 0 min 0,0 UV-I 54 W/m 12,9 km/h (3 Bft)
01.11.2013 09:20 10,7 C 10,0 C 88 % 1016,6 hPa 0,0 l/m 0 min 0 min 0,0 UV-I 51 W/m 7,7 km/h (2 Bft)
01.11.2013 09:22 10,7 C 10,0 C 88 % 1016,7 hPa 0,0 l/m 0 min 0 min 0,0 UV-I 47 W/m 20,6 km/h (4 Bft)
01.11.2013 09:24 10,8 C 10,0 C 88 % 1016,6 hPa 0,0 l/m 0 min 0 min 0,0 UV-I 47 W/m 7,7 km/h (2 Bft)
01.11.2013 09:26 10,8 C 10,0 C 87 % 1016,6 hPa 0,0 l/m 0 min 0 min 0,0 UV-I 49 W/m 5,1 km/h (1 Bft)
01.11.2013 09:28 10,8 C 10,0 C 87 % 1016,5 hPa 0,0 l/m 0 min 0 min 0,0 UV-I 54 W/m 15,4 km/h (3 Bft)
01.11.2013 09:30 10,8 C 10,0 C 87 % 1016,5 hPa 0,0 l/m 0 min 0 min 0,0 UV-I 54 W/m 15,4 km/h (3 Bft)
01.11.2013 09:32 10,8 C 10,0 C 87 % 1016,5 hPa 0,0 l/m 0 min 0 min 0,0 UV-I 53 W/m 12,9 km/h (3 Bft)
01.11.2013 09:34 10,8 C 10,0 C 87 % 1016,5 hPa 0,0 l/m 0 min 0 min 0,0 UV-I 56 W/m 5,1 km/h (1 Bft)
01.11.2013 09:36 10,8 C 10,0 C 87 % 1016,5 hPa 0,0 l/m 0 min 0 min 0,0 UV-I 58 W/m 15,4 km/h (3 Bft)
01.11.2013 09:38 10,9 C 10,0 C 87 % 1016,5 hPa 0,0 l/m 0 min 0 min 0,0 UV-I 60 W/m 0,0 km/h (0 Bft)
01.11.2013 09:40 10,9 C 10,0 C 87 % 1016,5 hPa 0,0 l/m 0 min 0 min 0,0 UV-I 62 W/m 7,7 km/h (2 Bft)
01.11.2013 09:42 10,9 C 10,0 C 87 % 1016,5 hPa 0,0 l/m 0 min 0 min 0,0 UV-I 62 W/m 10,3 km/h (2 Bft)
01.11.2013 09:44 10,9 C 10,0 C 87 % 1016,4 hPa 0,0 l/m 0 min 0 min 0,0 UV-I 62 W/m 7,7 km/h (2 Bft)
01.11.2013 09:46 10,9 C 10,0 C 87 % 1016,5 hPa 0,0 l/m 0 min 0 min 0,0 UV-I 60 W/m 18,0 km/h (3 Bft)
01.11.2013 09:48 10,9 C 10,0 C 87 % 1016,5 hPa 0,0 l/m 0 min 0 min 0,0 UV-I 62 W/m 15,4 km/h (3 Bft)
01.11.2013 09:50 11,0 C 10,0 C 87 % 1016,4 hPa 0,0 l/m 0 min 0 min 0,0 UV-I 62 W/m 5,1 km/h (1 Bft)
01.11.2013 09:52 11,0 C 10,0 C 87 % 1016,4 hPa 0,0 l/m 0 min 0 min 0,0 UV-I 63 W/m 12,9 km/h (3 Bft)
01.11.2013 09:54 11,0 C 10,0 C 87 % 1016,5 hPa 0,0 l/m 0 min 0 min 0,0 UV-I 70 W/m 15,4 km/h (3 Bft)
01.11.2013 09:56 11,0 C 10,0 C 87 % 1016,4 hPa 0,0 l/m 0 min 0 min 0,0 UV-I 76 W/m 10,3 km/h (2 Bft)
01.11.2013 09:58 11,1 C 10,0 C 87 % 1016,5 hPa 0,0 l/m 0 min 0 min 0,0 UV-I 81 W/m 10,3 km/h (2 Bft)
01.11.2013 10:00 11,1 C 10,0 C 87 % 1016,4 hPa 0,0 l/m 0 min 0 min 0,0 UV-I 83 W/m 15,4 km/h (3 Bft)
01.11.2013 10:02 11,1 C 10,0 C 87 % 1016,5 hPa 0,0 l/m 0 min 0 min 0,0 UV-I 83 W/m 5,1 km/h (1 Bft)
01.11.2013 10:04 11,2 C 10,6 C 87 % 1016,4 hPa 0,0 l/m 0 min 0 min 0,0 UV-I 83 W/m 12,9 km/h (3 Bft)
01.11.2013 10:06 11,2 C 10,6 C 87 % 1016,4 hPa 0,0 l/m 0 min 0 min 0,0 UV-I 86 W/m 7,7 km/h (2 Bft)
01.11.2013 10:08 11,2 C 10,6 C 87 % 1016,4 hPa 0,0 l/m 0 min 0 min 0,0 UV-I 90 W/m 12,9 km/h (3 Bft)
01.11.2013 10:10 11,2 C 10,6 C 87 % 1016,3 hPa 0,0 l/m 0 min 0 min 0,0 UV-I 93 W/m 7,7 km/h (2 Bft)
01.11.2013 10:12 11,3 C 10,6 C 87 % 1016,4 hPa 0,0 l/m 0 min 0 min 0,0 UV-I 100 W/m 7,7 km/h (2 Bft)
01.11.2013 10:14 11,3 C 10,6 C 87 % 1016,3 hPa 0,0 l/m 0 min 0 min 0,0 UV-I 109 W/m 7,7 km/h (2 Bft)
01.11.2013 10:16 11,3 C 10,6 C 87 % 1016,3 hPa 0,0 l/m 0 min 0 min 0,0 UV-I 111 W/m 15,4 km/h (3 Bft)
01.11.2013 10:18 11,3 C 10,6 C 87 % 1016,3 hPa 0,0 l/m 0 min 0 min 0,0 UV-I 111 W/m 7,7 km/h (2 Bft)
01.11.2013 10:20 11,4 C 10,6 C 87 % 1016,3 hPa 0,0 l/m 0 min 0 min 0,0 UV-I 109 W/m 7,7 km/h (2 Bft)
01.11.2013 10:22 11,4 C 10,6 C 87 % 1016,4 hPa 0,0 l/m 0 min 0 min 0,0 UV-I 109 W/m 18,0 km/h (3 Bft)
01.11.2013 10:24 11,4 C 10,6 C 87 % 1016,3 hPa 0,0 l/m 0 min 2 min 0,0 UV-I 114 W/m 18,0 km/h (3 Bft)
01.11.2013 10:26 11,4 C 10,6 C 87 % 1016,3 hPa 0,0 l/m 0 min 2 min 0,0 UV-I 121 W/m 7,7 km/h (2 Bft)
01.11.2013 10:28 11,4 C 10,6 C 87 % 1016,3 hPa 0,0 l/m 0 min 0 min 0,0 UV-I 123 W/m 20,6 km/h (4 Bft)
01.11.2013 10:30 11,4 C 10,6 C 86 % 1016,4 hPa 0,0 l/m 0 min 0 min 0,0 UV-I 120 W/m 15,4 km/h (3 Bft)
01.11.2013 10:32 11,5 C 10,6 C 86 % 1016,3 hPa 0,0 l/m 0 min 0 min 0,0 UV-I 114 W/m 15,4 km/h (3 Bft)
01.11.2013 10:34 11,5 C 10,6 C 86 % 1016,3 hPa 0,0 l/m 0 min 0 min 0,0 UV-I 114 W/m 10,3 km/h (2 Bft)
01.11.2013 10:36 11,5 C 10,6 C 86 % 1016,2 hPa 0,0 l/m 0 min 0 min 0,0 UV-I 114 W/m 10,3 km/h (2 Bft)
01.11.2013 10:38 11,5 C 10,6 C 86 % 1016,2 hPa 0,0 l/m 0 min 2 min 0,0 UV-I 118 W/m 15,4 km/h (3 Bft)
01.11.2013 10:40 11,5 C 10,6 C 86 % 1016,2 hPa 0,0 l/m 0 min 2 min 0,0 UV-I 121 W/m 18,0 km/h (3 Bft)
01.11.2013 10:42 11,6 C 10,6 C 86 % 1016,2 hPa 0,0 l/m 0 min 2 min 0,0 UV-I 125 W/m 7,7 km/h (2 Bft)
01.11.2013 10:44 11,6 C 10,6 C 86 % 1016,2 hPa 0,0 l/m 0 min 2 min 0,0 UV-I 134 W/m 5,1 km/h (1 Bft)
01.11.2013 10:46 11,6 C 10,6 C 86 % 1016,1 hPa 0,0 l/m 0 min 2 min 0,0 UV-I 137 W/m 7,7 km/h (2 Bft)
01.11.2013 10:48 11,6 C 11,1 C 86 % 1016,1 hPa 0,0 l/m 0 min 2 min 0,0 UV-I 139 W/m 12,9 km/h (3 Bft)
01.11.2013 10:50 11,7 C 11,1 C 86 % 1016,1 hPa 0,0 l/m 0 min 2 min 0,0 UV-I 135 W/m 12,9 km/h (3 Bft)
01.11.2013 10:52 11,7 C 11,1 C 86 % 1016,1 hPa 0,0 l/m 0 min 0 min 0,0 UV-I 127 W/m 10,3 km/h (2 Bft)
01.11.2013 10:54 11,7 C 11,1 C 86 % 1016,1 hPa 0,0 l/m 0 min 0 min 0,0 UV-I 116 W/m 10,3 km/h (2 Bft)
01.11.2013 10:56 11,7 C 11,1 C 86 % 1016,1 hPa 0,0 l/m 0 min 0 min 0,0 UV-I 105 W/m 20,6 km/h (4 Bft)
01.11.2013 10:58 11,7 C 11,1 C 86 % 1016,1 hPa 0,0 l/m 0 min 0 min 0,0 UV-I 100 W/m 10,3 km/h (2 Bft)
01.11.2013 11:00 11,6 C 11,1 C 86 % 1015,9 hPa 0,0 l/m 0 min 0 min 0,0 UV-I 97 W/m 12,9 km/h (3 Bft)
01.11.2013 11:02 11,6 C 10,6 C 86 % 1015,9 hPa 0,0 l/m 0 min 0 min 0,0 UV-I 88 W/m 15,4 km/h (3 Bft)
01.11.2013 11:04 11,6 C 10,6 C 86 % 1015,9 hPa 0,0 l/m 0 min 0 min 0,0 UV-I 81 W/m 12,9 km/h (3 Bft)
01.11.2013 11:06 11,6 C 10,6 C 86 % 1015,9 hPa 0,0 l/m 0 min 0 min 0,0 UV-I 72 W/m 15,4 km/h (3 Bft)
01.11.2013 11:08 11,6 C 10,6 C 86 % 1015,9 hPa 0,0 l/m 0 min 0 min 0,0 UV-I 63 W/m 12,9 km/h (3 Bft)
01.11.2013 11:10 11,6 C 10,6 C 86 % 1015,9 hPa 0,0 l/m 0 min 0 min 0,0 UV-I 63 W/m 0,0 km/h (0 Bft)
01.11.2013 11:12 11,6 C 10,6 C 86 % 1015,8 hPa 0,0 l/m 0 min 0 min 0,0 UV-I 67 W/m 5,1 km/h (1 Bft)
01.11.2013 11:14 11,5 C 10,6 C 86 % 1015,8 hPa 0,0 l/m 0 min 0 min 0,0 UV-I 70 W/m 10,3 km/h (2 Bft)
01.11.2013 11:16 11,6 C 10,6 C 86 % 1015,8 hPa 0,0 l/m 0 min 0 min 0,0 UV-I 76 W/m 5,1 km/h (1 Bft)
01.11.2013 11:18 11,5 C 10,6 C 87 % 1015,8 hPa 0,0 l/m 0 min 0 min 0,0 UV-I 83 W/m 12,9 km/h (3 Bft)
01.11.2013 11:20 11,5 C 10,6 C 87 % 1015,8 hPa 0,0 l/m 0 min 0 min 0,0 UV-I 81 W/m 12,9 km/h (3 Bft)
01.11.2013 11:22 11,5 C 10,6 C 87 % 1015,8 hPa 0,0 l/m 0 min 0 min 0,0 UV-I 81 W/m 7,7 km/h (2 Bft)
01.11.2013 11:24 11,5 C 10,6 C 87 % 1015,7 hPa 0,0 l/m 0 min 0 min 0,0 UV-I 83 W/m 0,0 km/h (0 Bft)
01.11.2013 11:26 11,5 C 11,1 C 87 % 1015,8 hPa 0,0 l/m 0 min 0 min 0,0 UV-I 95 W/m 10,3 km/h (2 Bft)
01.11.2013 11:28 11,6 C 11,1 C 87 % 1015,7 hPa 0,0 l/m 0 min 0 min 0,0 UV-I 107 W/m 10,3 km/h (2 Bft)
01.11.2013 11:30 11,6 C 11,1 C 87 % 1015,7 hPa 0,0 l/m 0 min 0 min 0,0 UV-I 118 W/m 2,6 km/h (1 Bft)
01.11.2013 11:32 11,6 C 11,1 C 87 % 1015,7 hPa 0,0 l/m 0 min 0 min 0,0 UV-I 125 W/m 7,7 km/h (2 Bft)
01.11.2013 11:34 11,6 C 11,1 C 87 % 1015,8 hPa 0,0 l/m 0 min 0 min 0,0 UV-I 130 W/m 2,6 km/h (1 Bft)
01.11.2013 11:36 11,7 C 11,1 C 87 % 1015,8 hPa 0,0 l/m 0 min 2 min 0,0 UV-I 130 W/m 0,0 km/h (0 Bft)
01.11.2013 11:38 11,7 C 11,1 C 87 % 1015,8 hPa 0,0 l/m 0 min 0 min 0,0 UV-I 121 W/m 5,1 km/h (1 Bft)
01.11.2013 11:40 11,7 C 11,1 C 87 % 1015,8 hPa 0,0 l/m 0 min 2 min 0,0 UV-I 102 W/m 12,9 km/h (3 Bft)
01.11.2013 11:42 11,7 C 11,1 C 87 % 1015,8 hPa 0,0 l/m 0 min 0 min 0,0 UV-I 72 W/m 10,3 km/h (2 Bft)
01.11.2013 11:44 11,7 C 10,6 C 87 % 1015,8 hPa 0,0 l/m 0 min 2 min 0,0 UV-I 65 W/m 2,6 km/h (1 Bft)
01.11.2013 11:46 11,6 C 10,6 C 87 % 1015,8 hPa 0,0 l/m 0 min 0 min 0,0 UV-I 62 W/m 7,7 km/h (2 Bft)
01.11.2013 11:48 11,6 C 10,6 C 87 % 1015,8 hPa 0,0 l/m 0 min 2 min 0,0 UV-I 60 W/m 10,3 km/h (2 Bft)
01.11.2013 11:50 11,6 C 10,6 C 87 % 1015,9 hPa 0,0 l/m 0 min 0 min 0,0 UV-I 58 W/m 2,6 km/h (1 Bft)
01.11.2013 11:52 11,6 C 10,6 C 88 % 1015,8 hPa 0,0 l/m 0 min 0 min 0,0 UV-I 54 W/m 2,6 km/h (1 Bft)
01.11.2013 11:54 11,5 C 10,6 C 88 % 1015,8 hPa 0,0 l/m 0 min 0 min 0,0 UV-I 56 W/m 0,0 km/h (0 Bft)
01.11.2013 11:56 11,5 C 10,6 C 88 % 1015,8 hPa 0,0 l/m 0 min 0 min 0,0 UV-I 63 W/m 7,7 km/h (2 Bft)
01.11.2013 11:58 11,5 C 10,6 C 88 % 1015,8 hPa 0,0 l/m 0 min 0 min 0,0 UV-I 70 W/m 0,0 km/h (0 Bft)
01.11.2013 12:00 11,5 C 10,6 C 88 % 1015,7 hPa 0,0 l/m 0 min 0 min 0,0 UV-I 88 W/m 2,6 km/h (1 Bft)
01.11.2013 12:02 11,5 C 10,6 C 88 % 1015,6 hPa 0,0 l/m 0 min 2 min 0,0 UV-I 104 W/m 7,7 km/h (2 Bft)
01.11.2013 12:06 11,5 C 10,6 C 88 % 1015,7 hPa 0,0 l/m 0 min 2 min 0,0 UV-I 118 W/m 10,3 km/h (2 Bft)
01.11.2013 12:08 11,5 C 10,6 C 88 % 1015,6 hPa 0,0 l/m 0 min 2 min 0,0 UV-I 120 W/m 7,7 km/h (2 Bft)
01.11.2013 12:10 11,5 C 10,6 C 89 % 1015,6 hPa 0,0 l/m 0 min 2 min 0,0 UV-I 123 W/m 10,3 km/h (2 Bft)
01.11.2013 12:12 11,6 C 10,6 C 89 % 1015,6 hPa 0,0 l/m 0 min 2 min 0,0 UV-I 128 W/m 7,7 km/h (2 Bft)
01.11.2013 12:14 11,6 C 10,6 C 89 % 1015,6 hPa 0,0 l/m 0 min 2 min 0,0 UV-I 118 W/m 7,7 km/h (2 Bft)
01.11.2013 12:16 11,6 C 10,6 C 89 % 1015,5 hPa 0,0 l/m 0 min 2 min 0,0 UV-I 107 W/m 0,0 km/h (0 Bft)
01.11.2013 12:18 11,6 C 10,6 C 89 % 1015,5 hPa 0,0 l/m 0 min 2 min 0,0 UV-I 100 W/m 2,6 km/h (1 Bft)
01.11.2013 12:20 11,6 C 10,6 C 89 % 1015,5 hPa 0,0 l/m 0 min 0 min 0,0 UV-I 98 W/m 7,7 km/h (2 Bft)
01.11.2013 12:22 11,6 C 10,6 C 89 % 1015,5 hPa 0,0 l/m 0 min 0 min 0,0 UV-I 105 W/m 2,6 km/h (1 Bft)
01.11.2013 12:24 11,6 C 11,1 C 89 % 1015,5 hPa 0,0 l/m 0 min 0 min 0,0 UV-I 113 W/m 2,6 km/h (1 Bft)
01.11.2013 12:26 11,6 C 11,1 C 89 % 1015,4 hPa 0,0 l/m 0 min 0 min 0,0 UV-I 116 W/m 0,0 km/h (0 Bft)
01.11.2013 12:28 11,6 C 11,1 C 89 % 1015,3 hPa 0,0 l/m 0 min 0 min 0,0 UV-I 118 W/m 15,4 km/h (3 Bft)
01.11.2013 12:30 11,6 C 11,1 C 89 % 1015,3 hPa 0,0 l/m 0 min 0 min 0,0 UV-I 123 W/m 7,7 km/h (2 Bft)
01.11.2013 12:32 11,7 C 11,1 C 89 % 1015,3 hPa 0,0 l/m 0 min 0 min 0,0 UV-I 128 W/m 0,0 km/h (0 Bft)
01.11.2013 12:34 11,7 C 11,1 C 92 % 1015,3 hPa 0,0 l/m 0 min 0 min 0,0 UV-I 130 W/m 12,9 km/h (3 Bft)
01.11.2013 12:36 11,7 C 11,1 C 92 % 1015,3 hPa 0,0 l/m 0 min 0 min 0,0 UV-I 139 W/m 10,3 km/h (2 Bft)
01.11.2013 12:38 11,7 C 11,1 C 89 % 1015,2 hPa 0,0 l/m 0 min 0 min 0,0 UV-I 148 W/m 7,7 km/h (2 Bft)
01.11.2013 12:40 11,7 C 11,7 C 89 % 1015,2 hPa 0,0 l/m 0 min 0 min 0,0 UV-I 153 W/m 10,3 km/h (2 Bft)
01.11.2013 12:42 11,7 C 11,7 C 89 % 1015,2 hPa 0,0 l/m 0 min 0 min 0,0 UV-I 162 W/m 15,4 km/h (3 Bft)
01.11.2013 12:44 11,8 C 11,7 C 89 % 1015,2 hPa 0,0 l/m 0 min 0 min 0,0 UV-I 160 W/m 0,0 km/h (0 Bft)
01.11.2013 12:46 11,9 C 11,7 C 89 % 1015,1 hPa 0,0 l/m 0 min 0 min 0,0 UV-I 162 W/m 7,7 km/h (2 Bft)
01.11.2013 12:48 11,9 C 11,7 C 89 % 1015,1 hPa 0,0 l/m 0 min 0 min 0,0 UV-I 156 W/m 12,9 km/h (3 Bft)
01.11.2013 12:50 11,9 C 11,7 C 89 % 1015,2 hPa 0,0 l/m 0 min 0 min 0,0 UV-I 151 W/m 20,6 km/h (4 Bft)
01.11.2013 12:52 11,9 C 11,7 C 88 % 1015,1 hPa 0,0 l/m 0 min 0 min 0,0 UV-I 149 W/m 2,6 km/h (1 Bft)
01.11.2013 12:54 11,9 C 11,7 C 88 % 1015,1 hPa 0,0 l/m 0 min 2 min 0,0 UV-I 146 W/m 10,3 km/h (2 Bft)
01.11.2013 12:56 12,0 C 11,7 C 89 % 1015,0 hPa 0,0 l/m 0 min 2 min 0,0 UV-I 144 W/m 12,9 km/h (3 Bft)
01.11.2013 12:58 12,0 C 11,7 C 89 % 1015,0 hPa 0,0 l/m 0 min 2 min 0,0 UV-I 141 W/m 10,3 km/h (2 Bft)
01.11.2013 13:00 12,0 C 11,7 C 89 % 1014,9 hPa 0,0 l/m 0 min 0 min 0,0 UV-I 148 W/m 12,9 km/h (3 Bft)
01.11.2013 13:02 12,0 C 11,7 C 89 % 1014,8 hPa 0,0 l/m 0 min 0 min 0,0 UV-I 156 W/m 25,7 km/h (4 Bft)
01.11.2013 13:04 11,9 C 11,7 C 89 % 1014,8 hPa 0,0 l/m 0 min 0 min 0,0 UV-I 165 W/m 23,2 km/h (4 Bft)
01.11.2013 13:06 11,9 C 11,7 C 89 % 1014,8 hPa 0,0 l/m 0 min 0 min 0,0 UV-I 162 W/m 15,4 km/h (3 Bft)
01.11.2013 13:08 11,9 C 11,7 C 88 % 1014,7 hPa 0,0 l/m 0 min 0 min 0,0 UV-I 155 W/m 18,0 km/h (3 Bft)
01.11.2013 13:10 11,9 C 11,7 C 88 % 1014,7 hPa 0,0 l/m 0 min 0 min 0,0 UV-I 151 W/m 10,3 km/h (2 Bft)
01.11.2013 13:12 12,0 C 11,7 C 89 % 1014,7 hPa 0,0 l/m 0 min 0 min 0,0 UV-I 160 W/m 10,3 km/h (2 Bft)
01.11.2013 13:14 12,1 C 11,7 C 88 % 1014,7 hPa 0,0 l/m 0 min 0 min 0,0 UV-I 156 W/m 15,4 km/h (3 Bft)
01.11.2013 13:16 12,1 C 11,7 C 88 % 1014,7 hPa 0,0 l/m 0 min 0 min 0,0 UV-I 160 W/m 12,9 km/h (3 Bft)
01.11.2013 13:18 12,1 C 11,7 C 88 % 1014,7 hPa 0,0 l/m 0 min 0 min 0,0 UV-I 155 W/m 7,7 km/h (2 Bft)
01.11.2013 13:20 12,2 C 11,7 C 88 % 1014,7 hPa 0,0 l/m 0 min 0 min 0,0 UV-I 148 W/m 7,7 km/h (2 Bft)
01.11.2013 13:22 12,3 C 12,2 C 88 % 1014,6 hPa 0,0 l/m 0 min 0 min 0,0 UV-I 134 W/m 5,1 km/h (1 Bft)
01.11.2013 13:24 12,3 C 12,2 C 88 % 1014,6 hPa 0,0 l/m 0 min 0 min 0,0 UV-I 132 W/m 12,9 km/h (3 Bft)
01.11.2013 13:26 12,3 C 11,7 C 87 % 1014,6 hPa 0,0 l/m 0 min 0 min 0,0 UV-I 135 W/m 10,3 km/h (2 Bft)
01.11.2013 13:28 12,2 C 11,7 C 87 % 1014,6 hPa 0,0 l/m 0 min 0 min 0,0 UV-I 148 W/m 7,7 km/h (2 Bft)
01.11.2013 13:30 12,3 C 11,7 C 87 % 1014,6 hPa 0,0 l/m 0 min 0 min 0,0 UV-I 144 W/m 7,7 km/h (2 Bft)
01.11.2013 13:32 12,3 C 11,7 C 87 % 1014,5 hPa 0,0 l/m 0 min 0 min 0,0 UV-I 137 W/m 7,7 km/h (2 Bft)
01.11.2013 13:34 12,3 C 11,7 C 87 % 1014,6 hPa 0,0 l/m 0 min 0 min 0,0 UV-I 137 W/m 18,0 km/h (3 Bft)
01.11.2013 13:36 12,3 C 11,7 C 87 % 1014,5 hPa 0,0 l/m 0 min 0 min 0,0 UV-I 149 W/m 18,0 km/h (3 Bft)
01.11.2013 13:38 12,4 C 11,7 C 87 % 1014,5 hPa 0,0 l/m 0 min 0 min 0,0 UV-I 169 W/m 28,3 km/h (4 Bft)
01.11.2013 13:40 12,4 C 12,2 C 87 % 1014,5 hPa 0,0 l/m 0 min 0 min 0,0 UV-I 185 W/m 15,4 km/h (3 Bft)
01.11.2013 13:42 12,4 C 12,2 C 87 % 1014,5 hPa 0,0 l/m 0 min 0 min 0,0 UV-I 188 W/m 15,4 km/h (3 Bft)
01.11.2013 13:44 12,6 C 12,2 C 87 % 1014,5 hPa 0,0 l/m 0 min 0 min 0,0 UV-I 185 W/m 10,3 km/h (2 Bft)
01.11.2013 13:46 12,6 C 12,2 C 87 % 1014,4 hPa 0,0 l/m 0 min 0 min 0,0 UV-I 190 W/m 10,3 km/h (2 Bft)
01.11.2013 13:48 12,6 C 12,2 C 86 % 1014,4 hPa 0,0 l/m 0 min 0 min 0,0 UV-I 199 W/m 7,7 km/h (2 Bft)
01.11.2013 13:50 12,7 C 12,2 C 86 % 1014,3 hPa 0,0 l/m 0 min 0 min 0,0 UV-I 188 W/m 12,9 km/h (3 Bft)
01.11.2013 13:52 12,7 C 12,2 C 86 % 1014,3 hPa 0,0 l/m 0 min 0 min 0,0 UV-I 183 W/m 10,3 km/h (2 Bft)
01.11.2013 13:54 12,8 C 12,2 C 86 % 1014,2 hPa 0,0 l/m 0 min 0 min 0,0 UV-I 190 W/m 15,4 km/h (3 Bft)
01.11.2013 13:56 12,8 C 12,2 C 86 % 1014,2 hPa 0,0 l/m 0 min 0 min 0,0 UV-I 139 W/m 10,3 km/h (2 Bft)
01.11.2013 13:58 12,7 C 12,2 C 85 % 1014,2 hPa 0,0 l/m 0 min 0 min 0,0 UV-I 114 W/m 20,6 km/h (4 Bft)
01.11.2013 14:00 12,7 C 11,7 C 86 % 1014,2 hPa 0,0 l/m 0 min 0 min 0,0 UV-I 121 W/m 12,9 km/h (3 Bft)
01.11.2013 14:02 12,6 C 11,7 C 85 % 1014,1 hPa 0,0 l/m 0 min 0 min 0,0 UV-I 134 W/m 15,4 km/h (3 Bft)
01.11.2013 14:04 12,6 C 11,7 C 86 % 1014,1 hPa 0,0 l/m 0 min 0 min 0,0 UV-I 95 W/m 7,7 km/h (2 Bft)
01.11.2013 14:06 12,6 C 11,7 C 85 % 1014,1 hPa 0,0 l/m 0 min 0 min 0,0 UV-I 90 W/m 15,4 km/h (3 Bft)
01.11.2013 14:08 12,5 C 11,7 C 86 % 1014,2 hPa 0,0 l/m 0 min 0 min 0,0 UV-I 76 W/m 15,4 km/h (3 Bft)
01.11.2013 14:10 12,4 C 11,7 C 86 % 1014,1 hPa 0,0 l/m 0 min 0 min 0,0 UV-I 69 W/m 12,9 km/h (3 Bft)
01.11.2013 14:12 12,4 C 11,7 C 86 % 1014,0 hPa 0,0 l/m 0 min 0 min 0,0 UV-I 69 W/m 15,4 km/h (3 Bft)
01.11.2013 14:14 12,4 C 11,7 C 86 % 1014,1 hPa 0,0 l/m 0 min 0 min 0,0 UV-I 72 W/m 5,1 km/h (1 Bft)
01.11.2013 14:16 12,4 C 11,7 C 86 % 1014,0 hPa 0,0 l/m 0 min 0 min 0,0 UV-I 77 W/m 5,1 km/h (1 Bft)
01.11.2013 14:18 12,3 C 11,7 C 86 % 1014,0 hPa 0,0 l/m 0 min 0 min 0,0 UV-I 90 W/m 12,9 km/h (3 Bft)
01.11.2013 14:20 12,3 C 11,7 C 86 % 1014,0 hPa 0,0 l/m 0 min 0 min 0,0 UV-I 123 W/m 18,0 km/h (3 Bft)
01.11.2013 14:22 12,3 C 11,7 C 86 % 1014,1 hPa 0,0 l/m 0 min 0 min 0,0 UV-I 153 W/m 10,3 km/h (2 Bft)
01.11.2013 14:24 12,4 C 11,7 C 86 % 1014,0 hPa 0,0 l/m 0 min 0 min 0,0 UV-I 156 W/m 15,4 km/h (3 Bft)
01.11.2013 14:26 12,4 C 11,7 C 86 % 1013,9 hPa 0,0 l/m 0 min 0 min 0,0 UV-I 130 W/m 7,7 km/h (2 Bft)
01.11.2013 14:28 12,4 C 11,7 C 86 % 1013,8 hPa 0,0 l/m 0 min 0 min 0,0 UV-I 134 W/m 18,0 km/h (3 Bft)
01.11.2013 14:30 12,4 C 11,7 C 85 % 1013,7 hPa 0,0 l/m 0 min 0 min 0,0 UV-I 125 W/m 15,4 km/h (3 Bft)
01.11.2013 14:32 12,4 C 11,7 C 86 % 1013,7 hPa 0,0 l/m 0 min 0 min 0,0 UV-I 137 W/m 10,3 km/h (2 Bft)
01.11.2013 14:34 12,4 C 11,7 C 86 % 1013,6 hPa 0,0 l/m 0 min 0 min 0,0 UV-I 109 W/m 7,7 km/h (2 Bft)
01.11.2013 14:36 12,4 C 11,7 C 86 % 1013,7 hPa 0,0 l/m 0 min 0 min 0,0 UV-I 93 W/m 15,4 km/h (3 Bft)
01.11.2013 14:38 12,4 C 11,7 C 86 % 1013,6 hPa 0,0 l/m 0 min 0 min 0,0 UV-I 81 W/m 15,4 km/h (3 Bft)
01.11.2013 14:40 12,4 C 11,7 C 86 % 1013,6 hPa 0,0 l/m 0 min 0 min 0,0 UV-I 83 W/m 5,1 km/h (1 Bft)
01.11.2013 14:42 12,3 C 11,1 C 86 % 1013,6 hPa 0,0 l/m 0 min 0 min 0,0 UV-I 81 W/m 7,7 km/h (2 Bft)
01.11.2013 14:44 12,3 C 11,1 C 86 % 1013,7 hPa 0,0 l/m 0 min 0 min 0,0 UV-I 79 W/m 18,0 km/h (3 Bft)
01.11.2013 14:46 12,2 C 11,1 C 86 % 1013,6 hPa 0,0 l/m 0 min 0 min 0,0 UV-I 77 W/m 12,9 km/h (3 Bft)
01.11.2013 14:48 12,2 C 11,1 C 86 % 1013,6 hPa 0,0 l/m 0 min 0 min 0,0 UV-I 90 W/m 7,7 km/h (2 Bft)
01.11.2013 14:50 12,2 C 11,1 C 86 % 1013,6 hPa 0,0 l/m 0 min 0 min 0,0 UV-I 98 W/m 2,6 km/h (1 Bft)
01.11.2013 14:52 12,2 C 11,1 C 87 % 1013,6 hPa 0,0 l/m 0 min 0 min 0,0 UV-I 88 W/m 7,7 km/h (2 Bft)
01.11.2013 14:54 12,2 C 11,1 C 86 % 1013,6 hPa 0,0 l/m 0 min 0 min 0,0 UV-I 77 W/m 5,1 km/h (1 Bft)
01.11.2013 14:56 12,2 C 11,1 C 87 % 1013,5 hPa 0,0 l/m 0 min 0 min 0,0 UV-I 81 W/m 5,1 km/h (1 Bft)
01.11.2013 14:58 12,2 C 11,1 C 87 % 1013,5 hPa 0,0 l/m 0 min 0 min 0,0 UV-I 72 W/m 0,0 km/h (0 Bft)
01.11.2013 15:00 12,2 C 11,1 C 87 % 1013,6 hPa 0,0 l/m 0 min 0 min 0,0 UV-I 62 W/m 0,0 km/h (0 Bft)
01.11.2013 15:02 12,2 C 11,1 C 87 % 1013,7 hPa 0,0 l/m 0 min 0 min 0,0 UV-I 49 W/m 7,7 km/h (2 Bft)
01.11.2013 15:04 12,2 C 11,1 C 87 % 1013,6 hPa 0,0 l/m 0 min 0 min 0,0 UV-I 53 W/m 2,6 km/h (1 Bft)
01.11.2013 15:06 12,2 C 11,1 C 87 % 1013,6 hPa 0,0 l/m 0 min 0 min 0,0 UV-I 62 W/m 10,3 km/h (2 Bft)
01.11.2013 15:08 12,2 C 11,7 C 87 % 1013,6 hPa 0,0 l/m 0 min 0 min 0,0 UV-I 70 W/m 0,0 km/h (0 Bft)
01.11.2013 15:10 12,2 C 11,7 C 87 % 1013,6 hPa 0,0 l/m 0 min 0 min 0,0 UV-I 81 W/m 10,3 km/h (2 Bft)
01.11.2013 15:12 12,2 C 11,7 C 87 % 1013,5 hPa 0,0 l/m 0 min 0 min 0,0 UV-I 72 W/m 10,3 km/h (2 Bft)
01.11.2013 15:14 12,2 C 11,7 C 87 % 1013,5 hPa 0,0 l/m 0 min 0 min 0,0 UV-I 70 W/m 10,3 km/h (2 Bft)
01.11.2013 15:16 12,2 C 11,7 C 87 % 1013,5 hPa 0,0 l/m 0 min 0 min 0,0 UV-I 67 W/m 0,0 km/h (0 Bft)
01.11.2013 15:18 12,2 C 11,7 C 87 % 1013,4 hPa 0,0 l/m 0 min 0 min 0,0 UV-I 69 W/m 5,1 km/h (1 Bft)
01.11.2013 15:20 12,2 C 11,7 C 87 % 1013,4 hPa 0,0 l/m 0 min 0 min 0,0 UV-I 74 W/m 2,6 km/h (1 Bft)
01.11.2013 15:22 12,2 C 11,7 C 87 % 1013,4 hPa 0,0 l/m 0 min 0 min 0,0 UV-I 84 W/m 0,0 km/h (0 Bft)
01.11.2013 15:24 12,3 C 11,7 C 87 % 1013,3 hPa 0,0 l/m 0 min 0 min 0,0 UV-I 95 W/m 0,0 km/h (0 Bft)
01.11.2013 15:26 12,3 C 11,7 C 87 % 1013,1 hPa 0,0 l/m 0 min 0 min 0,0 UV-I 93 W/m 10,3 km/h (2 Bft)
01.11.2013 15:28 12,3 C 11,7 C 87 % 1013,1 hPa 0,0 l/m 0 min 0 min 0,0 UV-I 93 W/m 5,1 km/h (1 Bft)
01.11.2013 15:30 12,2 C 11,7 C 87 % 1013,1 hPa 0,0 l/m 0 min 0 min 0,0 UV-I 88 W/m 5,1 km/h (1 Bft)
01.11.2013 15:32 12,2 C 11,7 C 87 % 1013,0 hPa 0,0 l/m 0 min 0 min 0,0 UV-I 84 W/m 10,3 km/h (2 Bft)
01.11.2013 15:34 12,2 C 11,7 C 87 % 1013,0 hPa 0,0 l/m 0 min 0 min 0,0 UV-I 76 W/m 10,3 km/h (2 Bft)
01.11.2013 15:36 12,2 C 11,7 C 87 % 1013,0 hPa 0,0 l/m 0 min 0 min 0,0 UV-I 84 W/m 2,6 km/h (1 Bft)
01.11.2013 15:38 12,2 C 11,7 C 87 % 1012,8 hPa 0,0 l/m 0 min 0 min 0,0 UV-I 81 W/m 15,4 km/h (3 Bft)
01.11.2013 15:40 12,2 C 11,1 C 87 % 1012,9 hPa 0,0 l/m 0 min 0 min 0,0 UV-I 77 W/m 7,7 km/h (2 Bft)
01.11.2013 15:42 12,2 C 11,1 C 87 % 1013,0 hPa 0,0 l/m 0 min 0 min 0,0 UV-I 76 W/m 0,0 km/h (0 Bft)
01.11.2013 15:44 12,2 C 11,1 C 87 % 1013,0 hPa 0,0 l/m 0 min 0 min 0,0 UV-I 67 W/m 12,9 km/h (3 Bft)
01.11.2013 15:46 12,2 C 11,1 C 87 % 1012,9 hPa 0,0 l/m 0 min 0 min 0,0 UV-I 67 W/m 7,7 km/h (2 Bft)
01.11.2013 15:48 12,2 C 11,1 C 87 % 1012,9 hPa 0,0 l/m 0 min 0 min 0,0 UV-I 67 W/m 7,7 km/h (2 Bft)
01.11.2013 15:50 12,1 C 11,1 C 87 % 1012,9 hPa 0,0 l/m 0 min 0 min 0,0 UV-I 65 W/m 10,3 km/h (2 Bft)
01.11.2013 15:52 12,1 C 11,1 C 87 % 1012,9 hPa 0,0 l/m 0 min 0 min 0,0 UV-I 62 W/m 7,7 km/h (2 Bft)
01.11.2013 15:54 12,1 C 11,1 C 87 % 1012,9 hPa 0,0 l/m 0 min 0 min 0,0 UV-I 56 W/m 5,1 km/h (1 Bft)
01.11.2013 15:56 12,1 C 11,1 C 87 % 1012,9 hPa 0,0 l/m 0 min 0 min 0,0 UV-I 54 W/m 10,3 km/h (2 Bft)
01.11.2013 15:58 12,0 C 11,1 C 87 % 1012,8 hPa 0,0 l/m 0 min 0 min 0,0 UV-I 53 W/m 15,4 km/h (3 Bft)
01.11.2013 16:00 12,0 C 11,1 C 87 % 1012,8 hPa 0,0 l/m 0 min 0 min 0,0 UV-I 53 W/m 10,3 km/h (2 Bft)
01.11.2013 16:02 12,0 C 11,1 C 87 % 1012,7 hPa 0,0 l/m 0 min 0 min 0,0 UV-I 53 W/m 10,3 km/h (2 Bft)
01.11.2013 16:04 11,9 C 11,1 C 87 % 1012,7 hPa 0,0 l/m 0 min 0 min 0,0 UV-I 51 W/m 12,9 km/h (3 Bft)
01.11.2013 16:06 11,9 C 11,1 C 87 % 1012,6 hPa 0,0 l/m 0 min 0 min 0,0 UV-I 47 W/m 5,1 km/h (1 Bft)
01.11.2013 16:08 11,9 C 11,1 C 87 % 1012,6 hPa 0,0 l/m 0 min 0 min 0,0 UV-I 44 W/m 2,6 km/h (1 Bft)
01.11.2013 16:10 11,9 C 10,6 C 88 % 1012,6 hPa 0,0 l/m 0 min 0 min 0,0 UV-I 42 W/m 0,0 km/h (0 Bft)
01.11.2013 16:12 11,9 C 10,6 C 88 % 1012,5 hPa 0,0 l/m 0 min 0 min 0,0 UV-I 35 W/m 0,0 km/h (0 Bft)
01.11.2013 16:14 11,8 C 10,6 C 88 % 1012,5 hPa 0,0 l/m 0 min 0 min 0,0 UV-I 32 W/m 15,4 km/h (3 Bft)
01.11.2013 16:16 11,8 C 10,6 C 88 % 1012,5 hPa 0,0 l/m 0 min 0 min 0,0 UV-I 32 W/m 12,9 km/h (3 Bft)
01.11.2013 16:18 11,8 C 10,6 C 88 % 1012,5 hPa 0,0 l/m 0 min 0 min 0,0 UV-I 30 W/m 0,0 km/h (0 Bft)
01.11.2013 16:20 11,8 C 10,6 C 88 % 1012,5 hPa 0,0 l/m 0 min 0 min 0,0 UV-I 28 W/m 5,1 km/h (1 Bft)
01.11.2013 16:22 11,8 C 10,6 C 88 % 1012,4 hPa 0,0 l/m 0 min 0 min 0,0 UV-I 28 W/m 0,0 km/h (0 Bft)
01.11.2013 16:24 11,7 C 10,6 C 88 % 1012,4 hPa 0,0 l/m 0 min 0 min 0,0 UV-I 28 W/m 7,7 km/h (2 Bft)
01.11.2013 16:26 11,7 C 10,6 C 88 % 1012,4 hPa 0,0 l/m 0 min 0 min 0,0 UV-I 28 W/m 10,3 km/h (2 Bft)
01.11.2013 16:28 11,7 C 10,6 C 88 % 1012,4 hPa 0,0 l/m 0 min 0 min 0,0 UV-I 26 W/m 0,0 km/h (0 Bft)
01.11.2013 16:30 11,7 C 10,6 C 88 % 1012,4 hPa 0,0 l/m 0 min 0 min 0,0 UV-I 25 W/m 2,6 km/h (1 Bft)
01.11.2013 16:32 11,7 C 10,6 C 88 % 1012,3 hPa 0,0 l/m 0 min 0 min 0,0 UV-I 25 W/m 7,7 km/h (2 Bft)
01.11.2013 16:34 11,7 C 10,6 C 89 % 1012,3 hPa 0,0 l/m 0 min 0 min 0,0 UV-I 23 W/m 2,6 km/h (1 Bft)
01.11.2013 16:36 11,7 C 10,6 C 89 % 1012,3 hPa 0,0 l/m 0 min 0 min 0,0 UV-I 21 W/m 0,0 km/h (0 Bft)
01.11.2013 16:38 11,7 C 10,6 C 89 % 1012,3 hPa 0,0 l/m 0 min 0 min 0,0 UV-I 19 W/m 0,0 km/h (0 Bft)
01.11.2013 16:40 11,6 C 10,6 C 89 % 1012,3 hPa 0,0 l/m 0 min 0 min 0,0 UV-I 16 W/m 7,7 km/h (2 Bft)
01.11.2013 16:42 11,6 C 10,6 C 89 % 1012,3 hPa 0,0 l/m 0 min 0 min 0,0 UV-I 14 W/m 7,7 km/h (2 Bft)
01.11.2013 16:44 11,6 C 10,6 C 89 % 1012,2 hPa 0,0 l/m 0 min 0 min 0,0 UV-I 12 W/m 5,1 km/h (1 Bft)
01.11.2013 16:46 11,6 C 10,6 C 89 % 1012,3 hPa 0,0 l/m 0 min 0 min 0,0 UV-I 11 W/m 12,9 km/h (3 Bft)
01.11.2013 16:48 11,6 C 10,6 C 89 % 1012,3 hPa 0,0 l/m 0 min 0 min 0,0 UV-I 11 W/m 0,0 km/h (0 Bft)
01.11.2013 16:50 11,6 C 10,6 C 89 % 1012,3 hPa 0,0 l/m 0 min 0 min 0,0 UV-I 9 W/m 10,3 km/h (2 Bft)
01.11.2013 16:52 11,6 C 10,6 C 89 % 1012,3 hPa 0,0 l/m 0 min 0 min 0,0 UV-I 9 W/m 10,3 km/h (2 Bft)
01.11.2013 16:54 11,6 C 10,6 C 89 % 1012,2 hPa 0,0 l/m 0 min 0 min 0,0 UV-I 7 W/m 7,7 km/h (2 Bft)
01.11.2013 16:56 11,6 C 10,6 C 89 % 1012,2 hPa 0,0 l/m 0 min 0 min 0,0 UV-I 5 W/m 10,3 km/h (2 Bft)
01.11.2013 16:58 11,6 C 10,6 C 89 % 1012,2 hPa 0,0 l/m 0 min 0 min 0,0 UV-I 5 W/m 2,6 km/h (1 Bft)
01.11.2013 17:00 11,6 C 10,6 C 89 % 1012,1 hPa 0,0 l/m 0 min 0 min 0,0 UV-I 5 W/m 7,7 km/h (2 Bft)
01.11.2013 17:02 11,6 C 10,0 C 89 % 1012,0 hPa 0,0 l/m 0 min 0 min 0,0 UV-I 0 W/m 7,7 km/h (2 Bft)
01.11.2013 17:04 11,6 C 10,0 C 89 % 1012,0 hPa 0,0 l/m 0 min 0 min 0,0 UV-I 0 W/m 12,9 km/h (3 Bft)
01.11.2013 17:06 11,6 C 10,0 C 89 % 1011,9 hPa 0,0 l/m 0 min 0 min 0,0 UV-I 0 W/m 0,0 km/h (0 Bft)
01.11.2013 17:08 11,5 C 10,0 C 89 % 1011,9 hPa 0,0 l/m 0 min 0 min 0,0 UV-I 0 W/m 0,0 km/h (0 Bft)
01.11.2013 17:10 11,5 C 10,0 C 89 % 1012,0 hPa 0,0 l/m 0 min 0 min 0,0 UV-I 0 W/m 15,4 km/h (3 Bft)
01.11.2013 17:12 11,5 C 10,0 C 89 % 1012,0 hPa 0,0 l/m 0 min 0 min 0,0 UV-I 0 W/m 12,9 km/h (3 Bft)
01.11.2013 17:14 11,5 C 10,0 C 89 % 1012,0 hPa 0,0 l/m 0 min 0 min 0,0 UV-I 0 W/m 7,7 km/h (2 Bft)
01.11.2013 17:16 11,4 C 10,0 C 89 % 1012,0 hPa 0,0 l/m 0 min 0 min 0,0 UV-I 0 W/m 10,3 km/h (2 Bft)
01.11.2013 17:18 11,4 C 10,0 C 89 % 1011,9 hPa 0,0 l/m 0 min 0 min 0,0 UV-I 0 W/m 12,9 km/h (3 Bft)
01.11.2013 17:20 11,4 C 10,0 C 89 % 1011,9 hPa 0,0 l/m 0 min 0 min 0,0 UV-I 0 W/m 5,1 km/h (1 Bft)
01.11.2013 17:22 11,4 C 10,0 C 89 % 1011,9 hPa 0,0 l/m 0 min 0 min 0,0 UV-I 0 W/m 12,9 km/h (3 Bft)
01.11.2013 17:24 11,4 C 10,0 C 89 % 1011,9 hPa 0,0 l/m 0 min 0 min 0,0 UV-I 0 W/m 7,7 km/h (2 Bft)
01.11.2013 17:26 11,3 C 10,0 C 89 % 1012,0 hPa 0,0 l/m 0 min 0 min 0,0 UV-I 0 W/m 5,1 km/h (1 Bft)
01.11.2013 17:28 11,3 C 10,0 C 89 % 1011,9 hPa 0,0 l/m 0 min 0 min 0,0 UV-I 0 W/m 5,1 km/h (1 Bft)
01.11.2013 17:30 11,3 C 10,0 C 89 % 1011,8 hPa 0,0 l/m 0 min 0 min 0,0 UV-I 0 W/m 12,9 km/h (3 Bft)
01.11.2013 17:32 11,3 C 10,0 C 89 % 1011,9 hPa 0,0 l/m 0 min 0 min 0,0 UV-I 0 W/m 10,3 km/h (2 Bft)
01.11.2013 17:34 11,3 C 10,0 C 89 % 1011,9 hPa 0,0 l/m 0 min 0 min 0,0 UV-I 0 W/m 2,6 km/h (1 Bft)
01.11.2013 17:36 11,3 C 10,0 C 89 % 1011,9 hPa 0,0 l/m 0 min 0 min 0,0 UV-I 0 W/m 0,0 km/h (0 Bft)
01.11.2013 17:38 11,3 C 10,0 C 89 % 1011,9 hPa 0,0 l/m 0 min 0 min 0,0 UV-I 0 W/m 5,1 km/h (1 Bft)
01.11.2013 17:40 11,3 C 10,0 C 89 % 1011,8 hPa 0,0 l/m 0 min 0 min 0,0 UV-I 0 W/m 7,7 km/h (2 Bft)
01.11.2013 17:42 11,3 C 10,0 C 89 % 1011,8 hPa 0,0 l/m 0 min 0 min 0,0 UV-I 0 W/m 5,1 km/h (1 Bft)
01.11.2013 17:44 11,3 C 10,0 C 89 % 1011,8 hPa 0,0 l/m 0 min 0 min 0,0 UV-I 0 W/m 0,0 km/h (0 Bft)
01.11.2013 17:46 11,2 C 10,0 C 89 % 1011,9 hPa 0,0 l/m 0 min 0 min 0,0 UV-I 0 W/m 2,6 km/h (1 Bft)
01.11.2013 17:48 11,2 C 10,0 C 89 % 1011,9 hPa 0,0 l/m 0 min 0 min 0,0 UV-I 0 W/m 10,3 km/h (2 Bft)
01.11.2013 17:50 11,3 C 10,0 C 89 % 1011,9 hPa 0,0 l/m 0 min 0 min 0,0 UV-I 0 W/m 0,0 km/h (0 Bft)
01.11.2013 17:52 11,3 C 10,0 C 89 % 1011,9 hPa 0,0 l/m 0 min 0 min 0,0 UV-I 0 W/m 0,0 km/h (0 Bft)
01.11.2013 17:54 11,3 C 10,0 C 89 % 1011,9 hPa 0,0 l/m 0 min 0 min 0,0 UV-I 0 W/m 5,1 km/h (1 Bft)
01.11.2013 17:56 11,3 C 10,0 C 89 % 1011,8 hPa 0,0 l/m 0 min 0 min 0,0 UV-I 0 W/m 10,3 km/h (2 Bft)
01.11.2013 17:58 11,3 C 10,0 C 89 % 1011,8 hPa 0,0 l/m 0 min 0 min 0,0 UV-I 0 W/m 0,0 km/h (0 Bft)
01.11.2013 18:00 11,3 C 10,0 C 89 % 1011,8 hPa 0,0 l/m 0 min 0 min 0,0 UV-I 0 W/m 0,0 km/h (0 Bft)
01.11.2013 18:02 11,3 C 10,0 C 89 % 1011,8 hPa 0,0 l/m 0 min 0 min 0,0 UV-I 0 W/m 2,6 km/h (1 Bft)
01.11.2013 18:06 11,3 C 10,0 C 89 % 1011,7 hPa 0,0 l/m 0 min 0 min 0,0 UV-I 0 W/m 2,6 km/h (1 Bft)
01.11.2013 18:08 11,3 C 10,0 C 89 % 1011,8 hPa 0,0 l/m 0 min 0 min 0,0 UV-I 0 W/m 0,0 km/h (0 Bft)
01.11.2013 18:10 11,3 C 10,0 C 89 % 1011,7 hPa 0,0 l/m 0 min 0 min 0,0 UV-I 0 W/m 5,1 km/h (1 Bft)
01.11.2013 18:12 11,3 C 10,0 C 89 % 1011,7 hPa 0,0 l/m 0 min 0 min 0,0 UV-I 0 W/m 2,6 km/h (1 Bft)
01.11.2013 18:14 11,3 C 10,0 C 89 % 1011,7 hPa 0,0 l/m 0 min 0 min 0,0 UV-I 0 W/m 10,3 km/h (2 Bft)
01.11.2013 18:16 11,3 C 10,0 C 89 % 1011,6 hPa 0,0 l/m 0 min 2 min 0,0 UV-I 0 W/m 5,1 km/h (1 Bft)
01.11.2013 18:18 11,3 C 10,0 C 89 % 1011,6 hPa 0,0 l/m 0 min 2 min 0,0 UV-I 0 W/m 12,9 km/h (3 Bft)
01.11.2013 18:20 11,3 C 10,0 C 89 % 1011,6 hPa 0,0 l/m 0 min 2 min 0,0 UV-I 0 W/m 7,7 km/h (2 Bft)
01.11.2013 18:22 11,3 C 9,4 C 89 % 1011,6 hPa 0,0 l/m 0 min 2 min 0,0 UV-I 0 W/m 2,6 km/h (1 Bft)
01.11.2013 18:24 11,2 C 9,4 C 89 % 1011,6 hPa 0,0 l/m 0 min 2 min 0,0 UV-I 0 W/m 5,1 km/h (1 Bft)
01.11.2013 18:26 11,2 C 9,4 C 89 % 1011,6 hPa 0,0 l/m 0 min 2 min 0,0 UV-I 0 W/m 12,9 km/h (3 Bft)
01.11.2013 18:28 11,2 C 9,4 C 89 % 1011,5 hPa 0,0 l/m 0 min 2 min 0,0 UV-I 0 W/m 7,7 km/h (2 Bft)
01.11.2013 18:30 11,2 C 9,4 C 89 % 1011,5 hPa 0,0 l/m 0 min 2 min 0,0 UV-I 0 W/m 12,9 km/h (3 Bft)
01.11.2013 18:32 11,2 C 9,4 C 89 % 1011,5 hPa 0,0 l/m 0 min 2 min 0,0 UV-I 0 W/m 2,6 km/h (1 Bft)
01.11.2013 18:34 11,2 C 9,4 C 90 % 1011,4 hPa 0,0 l/m 0 min 0 min 0,0 UV-I 0 W/m 12,9 km/h (3 Bft)
01.11.2013 18:36 11,2 C 9,4 C 90 % 1011,5 hPa 0,0 l/m 0 min 0 min 0,0 UV-I 0 W/m 2,6 km/h (1 Bft)
01.11.2013 18:38 11,1 C 9,4 C 90 % 1011,4 hPa 0,0 l/m 0 min 2 min 0,0 UV-I 0 W/m 2,6 km/h (1 Bft)
01.11.2013 18:40 11,1 C 9,4 C 90 % 1011,4 hPa 0,0 l/m 0 min 2 min 0,0 UV-I 0 W/m 0,0 km/h (0 Bft)
01.11.2013 18:42 11,1 C 9,4 C 90 % 1011,4 hPa 0,0 l/m 0 min 2 min 0,0 UV-I 0 W/m 0,0 km/h (0 Bft)
01.11.2013 18:44 11,1 C 9,4 C 90 % 1011,4 hPa 0,0 l/m 0 min 0 min 0,0 UV-I 0 W/m 2,6 km/h (1 Bft)
01.11.2013 18:46 11,1 C 9,4 C 90 % 1011,4 hPa 0,0 l/m 0 min 0 min 0,0 UV-I 0 W/m 0,0 km/h (0 Bft)
01.11.2013 18:48 11,0 C 9,4 C 90 % 1011,4 hPa 0,0 l/m 0 min 0 min 0,0 UV-I 0 W/m 2,6 km/h (1 Bft)
01.11.2013 18:50 11,0 C 9,4 C 90 % 1011,4 hPa 0,0 l/m 0 min 0 min 0,0 UV-I 0 W/m 2,6 km/h (1 Bft)
01.11.2013 18:52 11,0 C 9,4 C 90 % 1011,3 hPa 0,0 l/m 0 min 0 min 0,0 UV-I 0 W/m 2,6 km/h (1 Bft)
01.11.2013 18:54 11,0 C 9,4 C 90 % 1011,3 hPa 0,0 l/m 0 min 0 min 0,0 UV-I 0 W/m 5,1 km/h (1 Bft)
01.11.2013 18:56 10,9 C 9,4 C 90 % 1011,2 hPa 0,0 l/m 0 min 2 min 0,0 UV-I 0 W/m 7,7 km/h (2 Bft)
01.11.2013 18:58 10,9 C 9,4 C 90 % 1011,1 hPa 0,0 l/m 0 min 2 min 0,0 UV-I 0 W/m 10,3 km/h (2 Bft)
01.11.2013 19:00 10,9 C 9,4 C 91 % 1011,1 hPa 0,0 l/m 0 min 2 min 0,0 UV-I 0 W/m 2,6 km/h (1 Bft)
01.11.2013 19:02 10,9 C 9,4 C 91 % 1011,2 hPa 0,0 l/m 0 min 2 min 0,0 UV-I 0 W/m 5,1 km/h (1 Bft)
01.11.2013 19:04 10,9 C 9,4 C 91 % 1011,2 hPa 0,0 l/m 0 min 2 min 0,0 UV-I 0 W/m 5,1 km/h (1 Bft)
01.11.2013 19:06 10,9 C 9,4 C 91 % 1011,2 hPa 0,0 l/m 0 min 2 min 0,0 UV-I 0 W/m 5,1 km/h (1 Bft)
01.11.2013 19:08 10,9 C 9,4 C 91 % 1011,1 hPa 0,0 l/m 0 min 2 min 0,0 UV-I 0 W/m 5,1 km/h (1 Bft)
01.11.2013 19:10 10,8 C 9,4 C 92 % 1011,0 hPa 0,0 l/m 0 min 0 min 0,0 UV-I 0 W/m 15,4 km/h (3 Bft)
01.11.2013 19:12 10,8 C 9,4 C 91 % 1011,0 hPa 0,0 l/m 0 min 2 min 0,0 UV-I 0 W/m 15,4 km/h (3 Bft)
01.11.2013 19:14 10,8 C 8,9 C 92 % 1011,0 hPa 0,0 l/m 0 min 2 min 0,0 UV-I 0 W/m 10,3 km/h (2 Bft)
01.11.2013 19:16 10,8 C 8,9 C 92 % 1010,9 hPa 0,0 l/m 0 min 2 min 0,0 UV-I 0 W/m 5,1 km/h (1 Bft)
01.11.2013 19:18 10,7 C 8,9 C 92 % 1011,0 hPa 0,0 l/m 0 min 2 min 0,0 UV-I 0 W/m 10,3 km/h (2 Bft)
01.11.2013 19:20 10,7 C 8,9 C 92 % 1011,0 hPa 0,0 l/m 0 min 2 min 0,0 UV-I 0 W/m 12,9 km/h (3 Bft)
01.11.2013 19:22 10,6 C 8,9 C 92 % 1010,9 hPa 0,0 l/m 0 min 2 min 0,0 UV-I 0 W/m 7,7 km/h (2 Bft)
01.11.2013 19:24 10,6 C 8,9 C 92 % 1010,8 hPa 0,0 l/m 0 min 2 min 0,0 UV-I 0 W/m 7,7 km/h (2 Bft)
01.11.2013 19:26 10,5 C 8,9 C 93 % 1010,9 hPa 0,0 l/m 0 min 2 min 0,0 UV-I 0 W/m 10,3 km/h (2 Bft)
01.11.2013 19:28 10,4 C 8,9 C 93 % 1010,8 hPa 0,0 l/m 0 min 2 min 0,0 UV-I 0 W/m 12,9 km/h (3 Bft)
01.11.2013 19:30 10,4 C 8,9 C 93 % 1010,8 hPa 0,0 l/m 0 min 2 min 0,0 UV-I 0 W/m 0,0 km/h (0 Bft)
01.11.2013 19:32 10,4 C 8,9 C 93 % 1010,7 hPa 0,2 l/m 0 min 2 min 0,0 UV-I 0 W/m 10,3 km/h (2 Bft)
01.11.2013 19:34 10,3 C 8,9 C 93 % 1010,6 hPa 0,0 l/m 0 min 2 min 0,0 UV-I 0 W/m 0,0 km/h (0 Bft)
01.11.2013 19:36 10,3 C 8,9 C 93 % 1010,6 hPa 0,0 l/m 0 min 2 min 0,0 UV-I 0 W/m 10,3 km/h (2 Bft)
01.11.2013 19:38 10,3 C 8,9 C 93 % 1010,6 hPa 0,0 l/m 0 min 2 min 0,0 UV-I 0 W/m 10,3 km/h (2 Bft)
01.11.2013 19:40 10,2 C 8,9 C 94 % 1010,6 hPa 0,0 l/m 0 min 2 min 0,0 UV-I 0 W/m 10,3 km/h (2 Bft)
01.11.2013 19:42 10,2 C 8,9 C 94 % 1010,6 hPa 0,0 l/m 0 min 2 min 0,0 UV-I 0 W/m 10,3 km/h (2 Bft)
01.11.2013 19:44 10,2 C 8,9 C 94 % 1010,6 hPa 0,0 l/m 0 min 2 min 0,0 UV-I 0 W/m 12,9 km/h (3 Bft)
01.11.2013 19:46 10,1 C 8,9 C 94 % 1010,6 hPa 0,0 l/m 0 min 2 min 0,0 UV-I 0 W/m 7,7 km/h (2 Bft)
01.11.2013 19:48 10,1 C 8,9 C 94 % 1010,5 hPa 0,0 l/m 0 min 2 min 0,0 UV-I 0 W/m 10,3 km/h (2 Bft)
01.11.2013 19:50 10,1 C 8,9 C 94 % 1010,5 hPa 0,0 l/m 0 min 2 min 0,0 UV-I 0 W/m 7,7 km/h (2 Bft)
01.11.2013 19:52 10,1 C 8,9 C 94 % 1010,6 hPa 0,0 l/m 0 min 2 min 0,0 UV-I 0 W/m 10,3 km/h (2 Bft)
01.11.2013 19:54 10,1 C 8,3 C 94 % 1010,5 hPa 0,0 l/m 0 min 0 min 0,0 UV-I 0 W/m 10,3 km/h (2 Bft)
01.11.2013 19:56 10,1 C 8,3 C 94 % 1010,5 hPa 0,0 l/m 0 min 2 min 0,0 UV-I 0 W/m 10,3 km/h (2 Bft)
01.11.2013 19:58 10,0 C 8,3 C 94 % 1010,4 hPa 0,0 l/m 0 min 2 min 0,0 UV-I 0 W/m 5,1 km/h (1 Bft)
01.11.2013 20:00 10,0 C 8,3 C 94 % 1010,3 hPa 0,0 l/m 0 min 2 min 0,0 UV-I 0 W/m 12,9 km/h (3 Bft)
01.11.2013 20:02 10,0 C 8,3 C 94 % 1010,4 hPa 0,0 l/m 0 min 2 min 0,0 UV-I 0 W/m 7,7 km/h (2 Bft)
01.11.2013 20:04 10,0 C 8,3 C 94 % 1010,3 hPa 0,0 l/m 0 min 2 min 0,0 UV-I 0 W/m 10,3 km/h (2 Bft)
01.11.2013 20:06 9,9 C 8,3 C 94 % 1010,4 hPa 0,0 l/m 0 min 2 min 0,0 UV-I 0 W/m 10,3 km/h (2 Bft)
01.11.2013 20:08 9,9 C 8,3 C 94 % 1010,4 hPa 0,0 l/m 0 min 2 min 0,0 UV-I 0 W/m 5,1 km/h (1 Bft)
01.11.2013 20:10 9,9 C 8,3 C 94 % 1010,4 hPa 0,0 l/m 0 min 2 min 0,0 UV-I 0 W/m 0,0 km/h (0 Bft)
01.11.2013 20:12 9,9 C 8,3 C 94 % 1010,4 hPa 0,0 l/m 0 min 2 min 0,0 UV-I 0 W/m 7,7 km/h (2 Bft)
01.11.2013 20:14 9,9 C 8,3 C 94 % 1010,3 hPa 0,0 l/m 0 min 2 min 0,0 UV-I 0 W/m 7,7 km/h (2 Bft)
01.11.2013 20:16 9,9 C 8,3 C 94 % 1010,3 hPa 0,0 l/m 0 min 2 min 0,0 UV-I 0 W/m 5,1 km/h (1 Bft)
01.11.2013 20:18 9,9 C 8,3 C 94 % 1010,3 hPa 0,0 l/m 0 min 2 min 0,0 UV-I 0 W/m 5,1 km/h (1 Bft)
01.11.2013 20:20 9,9 C 8,3 C 94 % 1010,3 hPa 0,0 l/m 0 min 2 min 0,0 UV-I 0 W/m 0,0 km/h (0 Bft)
01.11.2013 20:22 9,9 C 8,3 C 94 % 1010,3 hPa 0,0 l/m 0 min 2 min 0,0 UV-I 0 W/m 18,0 km/h (3 Bft)
01.11.2013 20:24 9,8 C 8,3 C 94 % 1010,2 hPa 0,0 l/m 0 min 2 min 0,0 UV-I 0 W/m 10,3 km/h (2 Bft)
01.11.2013 20:26 9,8 C 8,3 C 94 % 1010,2 hPa 0,0 l/m 0 min 2 min 0,0 UV-I 0 W/m 10,3 km/h (2 Bft)
01.11.2013 20:28 9,8 C 8,3 C 94 % 1010,1 hPa 0,0 l/m 0 min 2 min 0,0 UV-I 0 W/m 10,3 km/h (2 Bft)
01.11.2013 20:30 9,8 C 8,3 C 94 % 1010,1 hPa 0,2 l/m 0 min 2 min 0,0 UV-I 0 W/m 12,9 km/h (3 Bft)
01.11.2013 20:32 9,7 C 8,3 C 94 % 1010,1 hPa 0,0 l/m 0 min 2 min 0,0 UV-I 0 W/m 12,9 km/h (3 Bft)
01.11.2013 20:34 9,7 C 8,3 C 94 % 1010,1 hPa 0,0 l/m 0 min 2 min 0,0 UV-I 0 W/m 18,0 km/h (3 Bft)
01.11.2013 20:36 9,7 C 8,3 C 95 % 1010,1 hPa 0,0 l/m 0 min 2 min 0,0 UV-I 0 W/m 12,9 km/h (3 Bft)
01.11.2013 20:38 9,7 C 8,3 C 95 % 1010,1 hPa 0,0 l/m 0 min 2 min 0,0 UV-I 0 W/m 10,3 km/h (2 Bft)
01.11.2013 20:40 9,6 C 8,3 C 95 % 1010,1 hPa 0,0 l/m 0 min 2 min 0,0 UV-I 0 W/m 12,9 km/h (3 Bft)
01.11.2013 20:42 9,6 C 8,3 C 95 % 1010,1 hPa 0,0 l/m 0 min 2 min 0,0 UV-I 0 W/m 12,9 km/h (3 Bft)
01.11.2013 20:44 9,6 C 8,3 C 95 % 1010,0 hPa 0,0 l/m 0 min 2 min 0,0 UV-I 0 W/m 7,7 km/h (2 Bft)
01.11.2013 20:46 9,6 C 8,3 C 95 % 1010,0 hPa 0,2 l/m 0 min 2 min 0,0 UV-I 0 W/m 10,3 km/h (2 Bft)
01.11.2013 20:48 9,5 C 7,8 C 95 % 1009,9 hPa 0,0 l/m 0 min 2 min 0,0 UV-I 0 W/m 10,3 km/h (2 Bft)
01.11.2013 20:50 9,5 C 7,8 C 95 % 1009,9 hPa 0,0 l/m 0 min 2 min 0,0 UV-I 0 W/m 7,7 km/h (2 Bft)
01.11.2013 20:52 9,5 C 7,8 C 95 % 1009,9 hPa 0,0 l/m 0 min 2 min 0,0 UV-I 0 W/m 10,3 km/h (2 Bft)
01.11.2013 20:54 9,5 C 8,3 C 95 % 1009,8 hPa 0,0 l/m 0 min 2 min 0,0 UV-I 0 W/m 7,7 km/h (2 Bft)
01.11.2013 20:56 9,4 C 7,8 C 95 % 1009,8 hPa 0,0 l/m 0 min 2 min 0,0 UV-I 0 W/m 7,7 km/h (2 Bft)
01.11.2013 20:58 9,4 C 7,8 C 95 % 1009,8 hPa 0,0 l/m 0 min 2 min 0,0 UV-I 0 W/m 15,4 km/h (3 Bft)
01.11.2013 21:00 9,4 C 7,8 C 95 % 1009,7 hPa 0,0 l/m 0 min 2 min 0,0 UV-I 0 W/m 15,4 km/h (3 Bft)
01.11.2013 21:02 9,3 C 7,8 C 95 % 1009,7 hPa 0,2 l/m 0 min 2 min 0,0 UV-I 0 W/m 5,1 km/h (1 Bft)
01.11.2013 21:04 9,3 C 7,8 C 95 % 1009,6 hPa 0,0 l/m 0 min 2 min 0,0 UV-I 0 W/m 7,7 km/h (2 Bft)
01.11.2013 21:06 9,3 C 7,8 C 95 % 1009,6 hPa 0,0 l/m 0 min 2 min 0,0 UV-I 0 W/m 10,3 km/h (2 Bft)
01.11.2013 21:08 9,3 C 7,8 C 95 % 1009,6 hPa 0,0 l/m 0 min 2 min 0,0 UV-I 0 W/m 10,3 km/h (2 Bft)
01.11.2013 21:10 9,3 C 7,8 C 95 % 1009,6 hPa 0,0 l/m 0 min 2 min 0,0 UV-I 0 W/m 0,0 km/h (0 Bft)
01.11.2013 21:12 9,2 C 7,8 C 95 % 1009,6 hPa 0,0 l/m 0 min 2 min 0,0 UV-I 0 W/m 10,3 km/h (2 Bft)
01.11.2013 21:14 9,2 C 7,8 C 95 % 1009,7 hPa 0,0 l/m 0 min 2 min 0,0 UV-I 0 W/m 10,3 km/h (2 Bft)
01.11.2013 21:16 9,2 C 7,8 C 95 % 1009,7 hPa 0,0 l/m 0 min 2 min 0,0 UV-I 0 W/m 7,7 km/h (2 Bft)
01.11.2013 21:18 9,2 C 7,8 C 95 % 1009,7 hPa 0,0 l/m 0 min 2 min 0,0 UV-I 0 W/m 7,7 km/h (2 Bft)
01.11.2013 21:20 9,1 C 7,8 C 96 % 1009,6 hPa 0,0 l/m 0 min 2 min 0,0 UV-I 0 W/m 0,0 km/h (0 Bft)
01.11.2013 21:22 9,1 C 7,8 C 96 % 1009,6 hPa 0,2 l/m 0 min 2 min 0,0 UV-I 0 W/m 0,0 km/h (0 Bft)
01.11.2013 21:24 9,1 C 7,8 C 96 % 1009,6 hPa 0,0 l/m 0 min 2 min 0,0 UV-I 0 W/m 7,7 km/h (2 Bft)
01.11.2013 21:26 9,1 C 7,8 C 96 % 1009,5 hPa 0,0 l/m 0 min 2 min 0,0 UV-I 0 W/m 10,3 km/h (2 Bft)
01.11.2013 21:28 9,1 C 7,8 C 96 % 1009,6 hPa 0,0 l/m 0 min 2 min 0,0 UV-I 0 W/m 10,3 km/h (2 Bft)
01.11.2013 21:30 9,1 C 7,8 C 96 % 1009,5 hPa 0,0 l/m 0 min 2 min 0,0 UV-I 0 W/m 28,3 km/h (4 Bft)
01.11.2013 21:32 9,0 C 7,8 C 96 % 1009,5 hPa 0,0 l/m 0 min 2 min 0,0 UV-I 0 W/m 20,6 km/h (4 Bft)
01.11.2013 21:34 8,9 C 7,8 C 96 % 1009,5 hPa 0,0 l/m 0 min 2 min 0,0 UV-I 0 W/m 18,0 km/h (3 Bft)
01.11.2013 21:36 8,9 C 7,8 C 96 % 1009,4 hPa 0,0 l/m 0 min 2 min 0,0 UV-I 0 W/m 12,9 km/h (3 Bft)
01.11.2013 21:38 8,9 C 7,8 C 96 % 1009,4 hPa 0,0 l/m 0 min 2 min 0,0 UV-I 0 W/m 10,3 km/h (2 Bft)
01.11.2013 21:40 8,9 C 7,8 C 96 % 1009,3 hPa 0,0 l/m 0 min 2 min 0,0 UV-I 0 W/m 5,1 km/h (1 Bft)
01.11.2013 21:42 8,9 C 7,8 C 96 % 1009,3 hPa 0,0 l/m 0 min 2 min 0,0 UV-I 0 W/m 10,3 km/h (2 Bft)
01.11.2013 21:44 8,8 C 7,8 C 96 % 1009,3 hPa 0,0 l/m 0 min 2 min 0,0 UV-I 0 W/m 7,7 km/h (2 Bft)
01.11.2013 21:46 8,8 C 7,8 C 96 % 1009,2 hPa 0,0 l/m 0 min 2 min 0,0 UV-I 0 W/m 7,7 km/h (2 Bft)
01.11.2013 21:48 8,8 C 7,8 C 96 % 1009,1 hPa 0,0 l/m 0 min 2 min 0,0 UV-I 0 W/m 10,3 km/h (2 Bft)
01.11.2013 21:50 8,8 C 7,8 C 96 % 1009,0 hPa 0,2 l/m 0 min 2 min 0,0 UV-I 0 W/m 10,3 km/h (2 Bft)
01.11.2013 21:52 8,8 C 7,8 C 96 % 1009,1 hPa 0,0 l/m 0 min 2 min 0,0 UV-I 0 W/m 18,0 km/h (3 Bft)
01.11.2013 21:54 8,8 C 7,8 C 96 % 1009,1 hPa 0,0 l/m 0 min 2 min 0,0 UV-I 0 W/m 10,3 km/h (2 Bft)
01.11.2013 21:56 8,8 C 7,8 C 96 % 1009,2 hPa 0,0 l/m 0 min 2 min 0,0 UV-I 0 W/m 12,9 km/h (3 Bft)
01.11.2013 21:58 8,7 C 7,8 C 96 % 1009,1 hPa 0,0 l/m 0 min 2 min 0,0 UV-I 0 W/m 15,4 km/h (3 Bft)
01.11.2013 22:00 8,7 C 7,8 C 96 % 1009,0 hPa 0,0 l/m 0 min 2 min 0,0 UV-I 0 W/m 7,7 km/h (2 Bft)
01.11.2013 22:02 8,7 C 7,2 C 96 % 1008,9 hPa 0,0 l/m 0 min 2 min 0,0 UV-I 0 W/m 23,2 km/h (4 Bft)
01.11.2013 22:04 8,7 C 7,2 C 96 % 1008,8 hPa 0,0 l/m 0 min 2 min 0,0 UV-I 0 W/m 15,4 km/h (3 Bft)
01.11.2013 22:06 8,7 C 7,2 C 96 % 1008,9 hPa 0,0 l/m 0 min 2 min 0,0 UV-I 0 W/m 7,7 km/h (2 Bft)
01.11.2013 22:08 8,7 C 7,2 C 96 % 1008,8 hPa 0,0 l/m 0 min 2 min 0,0 UV-I 0 W/m 15,4 km/h (3 Bft)
01.11.2013 22:10 8,7 C 7,2 C 96 % 1008,8 hPa 0,0 l/m 0 min 2 min 0,0 UV-I 0 W/m 7,7 km/h (2 Bft)
01.11.2013 22:12 8,7 C 7,2 C 96 % 1008,7 hPa 0,0 l/m 0 min 2 min 0,0 UV-I 0 W/m 2,6 km/h (1 Bft)
01.11.2013 22:14 8,7 C 7,2 C 96 % 1008,7 hPa 0,2 l/m 0 min 2 min 0,0 UV-I 0 W/m 0,0 km/h (0 Bft)
01.11.2013 22:16 8,7 C 7,2 C 96 % 1008,6 hPa 0,0 l/m 0 min 2 min 0,0 UV-I 0 W/m 12,9 km/h (3 Bft)
01.11.2013 22:18 8,6 C 7,2 C 96 % 1008,7 hPa 0,0 l/m 0 min 2 min 0,0 UV-I 0 W/m 7,7 km/h (2 Bft)
01.11.2013 22:20 8,6 C 7,2 C 96 % 1008,6 hPa 0,0 l/m 0 min 2 min 0,0 UV-I 0 W/m 0,0 km/h (0 Bft)
01.11.2013 22:22 8,6 C 7,2 C 96 % 1008,6 hPa 0,0 l/m 0 min 2 min 0,0 UV-I 0 W/m 2,6 km/h (1 Bft)
01.11.2013 22:24 8,6 C 7,2 C 96 % 1008,5 hPa 0,0 l/m 0 min 2 min 0,0 UV-I 0 W/m 10,3 km/h (2 Bft)
01.11.2013 22:26 8,6 C 7,2 C 96 % 1008,5 hPa 0,0 l/m 0 min 2 min 0,0 UV-I 0 W/m 12,9 km/h (3 Bft)
01.11.2013 22:28 8,6 C 7,2 C 96 % 1008,5 hPa 0,0 l/m 0 min 2 min 0,0 UV-I 0 W/m 12,9 km/h (3 Bft)
01.11.2013 22:30 8,6 C 7,2 C 97 % 1008,6 hPa 0,0 l/m 0 min 2 min 0,0 UV-I 0 W/m 7,7 km/h (2 Bft)
01.11.2013 22:32 8,6 C 7,2 C 97 % 1008,5 hPa 0,0 l/m 0 min 2 min 0,0 UV-I 0 W/m 12,9 km/h (3 Bft)
01.11.2013 22:34 8,6 C 7,2 C 97 % 1008,4 hPa 0,0 l/m 0 min 2 min 0,0 UV-I 0 W/m 10,3 km/h (2 Bft)
01.11.2013 22:36 8,6 C 7,2 C 97 % 1008,4 hPa 0,0 l/m 0 min 2 min 0,0 UV-I 0 W/m 10,3 km/h (2 Bft)
01.11.2013 22:38 8,6 C 7,2 C 97 % 1008,4 hPa 0,0 l/m 0 min 2 min 0,0 UV-I 0 W/m 7,7 km/h (2 Bft)
01.11.2013 22:40 8,6 C 7,2 C 97 % 1008,3 hPa 0,0 l/m 0 min 0 min 0,0 UV-I 0 W/m 7,7 km/h (2 Bft)
01.11.2013 22:42 8,6 C 7,2 C 97 % 1008,3 hPa 0,0 l/m 0 min 0 min 0,0 UV-I 0 W/m 15,4 km/h (3 Bft)
01.11.2013 22:44 8,6 C 7,2 C 97 % 1008,3 hPa 0,0 l/m 0 min 0 min 0,0 UV-I 0 W/m 7,7 km/h (2 Bft)
01.11.2013 22:46 8,6 C 7,2 C 97 % 1008,3 hPa 0,0 l/m 0 min 2 min 0,0 UV-I 0 W/m 15,4 km/h (3 Bft)
01.11.2013 22:48 8,6 C 7,2 C 97 % 1008,3 hPa 0,0 l/m 0 min 2 min 0,0 UV-I 0 W/m 20,6 km/h (4 Bft)
01.11.2013 22:50 8,5 C 7,2 C 97 % 1008,3 hPa 0,0 l/m 0 min 2 min 0,0 UV-I 0 W/m 15,4 km/h (3 Bft)
01.11.2013 22:52 8,5 C 7,2 C 97 % 1008,2 hPa 0,0 l/m 0 min 2 min 0,0 UV-I 0 W/m 15,4 km/h (3 Bft)
01.11.2013 22:54 8,5 C 7,2 C 97 % 1008,1 hPa 0,0 l/m 0 min 2 min 0,0 UV-I 0 W/m 12,9 km/h (3 Bft)
01.11.2013 22:56 8,5 C 7,2 C 97 % 1008,1 hPa 0,0 l/m 0 min 2 min 0,0 UV-I 0 W/m 12,9 km/h (3 Bft)
01.11.2013 22:58 8,5 C 7,2 C 97 % 1008,1 hPa 0,0 l/m 0 min 2 min 0,0 UV-I 0 W/m 12,9 km/h (3 Bft)
01.11.2013 23:00 8,5 C 7,2 C 97 % 1008,1 hPa 0,0 l/m 0 min 2 min 0,0 UV-I 0 W/m 20,6 km/h (4 Bft)
01.11.2013 23:02 8,5 C 7,2 C 97 % 1008,0 hPa 0,0 l/m 0 min 2 min 0,0 UV-I 0 W/m 18,0 km/h (3 Bft)
01.11.2013 23:04 8,5 C 7,2 C 97 % 1008,0 hPa 0,0 l/m 0 min 2 min 0,0 UV-I 0 W/m 15,4 km/h (3 Bft)
01.11.2013 23:06 8,5 C 7,2 C 97 % 1008,0 hPa 0,0 l/m 0 min 2 min 0,0 UV-I 0 W/m 10,3 km/h (2 Bft)
01.11.2013 23:08 8,4 C 7,2 C 97 % 1008,0 hPa 0,0 l/m 0 min 2 min 0,0 UV-I 0 W/m 15,4 km/h (3 Bft)
01.11.2013 23:10 8,4 C 7,2 C 97 % 1007,9 hPa 0,0 l/m 0 min 2 min 0,0 UV-I 0 W/m 12,9 km/h (3 Bft)
01.11.2013 23:12 8,4 C 7,2 C 97 % 1007,9 hPa 0,0 l/m 0 min 2 min 0,0 UV-I 0 W/m 15,4 km/h (3 Bft)
01.11.2013 23:14 8,4 C 7,2 C 97 % 1007,8 hPa 0,0 l/m 0 min 2 min 0,0 UV-I 0 W/m 12,9 km/h (3 Bft)
01.11.2013 23:16 8,4 C 7,2 C 97 % 1007,9 hPa 0,0 l/m 0 min 2 min 0,0 UV-I 0 W/m 10,3 km/h (2 Bft)
01.11.2013 23:18 8,4 C 7,2 C 97 % 1007,8 hPa 0,0 l/m 0 min 2 min 0,0 UV-I 0 W/m 10,3 km/h (2 Bft)
01.11.2013 23:20 8,4 C 7,2 C 97 % 1007,8 hPa 0,0 l/m 0 min 2 min 0,0 UV-I 0 W/m 10,3 km/h (2 Bft)
01.11.2013 23:22 8,4 C 7,2 C 97 % 1007,7 hPa 0,0 l/m 0 min 2 min 0,0 UV-I 0 W/m 7,7 km/h (2 Bft)
01.11.2013 23:24 8,4 C 7,2 C 97 % 1007,7 hPa 0,0 l/m 0 min 2 min 0,0 UV-I 0 W/m 15,4 km/h (3 Bft)
01.11.2013 23:26 8,3 C 7,2 C 97 % 1007,6 hPa 0,0 l/m 0 min 2 min 0,0 UV-I 0 W/m 2,6 km/h (1 Bft)
01.11.2013 23:28 8,3 C 7,2 C 97 % 1007,6 hPa 0,2 l/m 0 min 2 min 0,0 UV-I 0 W/m 5,1 km/h (1 Bft)
01.11.2013 23:30 8,3 C 7,2 C 97 % 1007,6 hPa 0,0 l/m 0 min 0 min 0,0 UV-I 0 W/m 10,3 km/h (2 Bft)
01.11.2013 23:32 8,3 C 7,2 C 97 % 1007,6 hPa 0,0 l/m 0 min 2 min 0,0 UV-I 0 W/m 7,7 km/h (2 Bft)
01.11.2013 23:34 8,3 C 7,2 C 97 % 1007,6 hPa 0,0 l/m 0 min 0 min 0,0 UV-I 0 W/m 5,1 km/h (1 Bft)
01.11.2013 23:36 8,3 C 7,2 C 97 % 1007,5 hPa 0,0 l/m 0 min 0 min 0,0 UV-I 0 W/m 7,7 km/h (2 Bft)
01.11.2013 23:38 8,3 C 7,2 C 97 % 1007,6 hPa 0,0 l/m 0 min 0 min 0,0 UV-I 0 W/m 7,7 km/h (2 Bft)
01.11.2013 23:40 8,2 C 7,2 C 97 % 1007,5 hPa 0,0 l/m 0 min 0 min 0,0 UV-I 0 W/m 12,9 km/h (3 Bft)
01.11.2013 23:42 8,2 C 7,2 C 97 % 1007,5 hPa 0,0 l/m 0 min 0 min 0,0 UV-I 0 W/m 15,4 km/h (3 Bft)
01.11.2013 23:44 8,2 C 7,2 C 97 % 1007,4 hPa 0,0 l/m 0 min 0 min 0,0 UV-I 0 W/m 20,6 km/h (4 Bft)
01.11.2013 23:46 8,2 C 7,2 C 97 % 1007,3 hPa 0,0 l/m 0 min 0 min 0,0 UV-I 0 W/m 18,0 km/h (3 Bft)
01.11.2013 23:48 8,2 C 7,2 C 97 % 1007,3 hPa 0,0 l/m 0 min 0 min 0,0 UV-I 0 W/m 12,9 km/h (3 Bft)
01.11.2013 23:50 8,2 C 7,2 C 97 % 1007,3 hPa 0,0 l/m 0 min 0 min 0,0 UV-I 0 W/m 10,3 km/h (2 Bft)
01.11.2013 23:52 8,2 C 7,2 C 97 % 1007,1 hPa 0,0 l/m 0 min 2 min 0,0 UV-I 0 W/m 10,3 km/h (2 Bft)
01.11.2013 23:54 8,2 C 7,2 C 97 % 1007,2 hPa 0,0 l/m 0 min 2 min 0,0 UV-I 0 W/m 2,6 km/h (1 Bft)
01.11.2013 23:56 8,2 C 7,2 C 97 % 1007,2 hPa 0,0 l/m 0 min 2 min 0,0 UV-I 0 W/m 12,9 km/h (3 Bft)
01.11.2013 23:58 8,2 C 7,2 C 97 % 1007,2 hPa 0,0 l/m 0 min 2 min 0,0 UV-I 0 W/m 7,7 km/h (2 Bft)
_ Min-Zeit 23:38 22:02 00:00 23:52 - - - - - 00:14
Minimum _ 8,2 C 7,2 C 81 % 1007,1 hPa - - - - - 0,0 km/h (0 Bft)
_ Max-Zeit 13:54 13:22 22:30 00:00 08:12 00:00 00:24 00:00 13:48 13:38
Maximum _ 12,8 C 12,2 C 97 % 1018,8 hPa 0,2 l/m 0 min 2 min 0,0 UV-I 199 W/m 28,3 km/h
O-SO (4 Bft)
Durchschnitt _ 10,7 C 9,4 C 89 % 1014,3 hPa #1,8 l/m #0 min. #7:00 h 0,0 UV-I 82 W/m 8,4 km/h (2 Bft)
© 2013 W. Hausmann